Wetterdaten: Mittwoch, 23.06.2021
Datum Zeit Temp. Aussen Temp. o. S. Temp +5cm Feuchte Auss Luftdruck Regen Sonnenschein Regendauer Solar Windben Empfang
23.06.2021 00:00 13,9 C 12,8 C 12,3 C 98 % 1019,0 hPa 0,0 l/m 0 min 0 min 0 W/m 6,4 km/h (2 Bft) 94,29 %
23.06.2021 00:02 13,9 C 12,8 C 12,3 C 98 % 1019,1 hPa 0,0 l/m 0 min 0 min 0 W/m 6,4 km/h (2 Bft) 92,50 %
23.06.2021 00:04 13,9 C 12,8 C 12,3 C 98 % 1019,1 hPa 0,0 l/m 0 min 0 min 0 W/m 9,7 km/h (2 Bft) 94,00 %
23.06.2021 00:08 13,9 C 12,8 C 12,3 C 98 % 1019,0 hPa 0,0 l/m 0 min 0 min 0 W/m 9,7 km/h (2 Bft) 95,88 %
23.06.2021 00:10 13,9 C 12,8 C 12,3 C 98 % 1019,1 hPa 0,0 l/m 0 min 0 min 0 W/m 6,4 km/h (2 Bft) 94,59 %
23.06.2021 00:12 13,8 C 12,8 C 12,3 C 98 % 1019,1 hPa 0,0 l/m 0 min 0 min 0 W/m 3,2 km/h (1 Bft) 95,74 %
23.06.2021 00:14 13,8 C 12,8 C 12,3 C 98 % 1019,1 hPa 0,0 l/m 0 min 0 min 0 W/m 6,4 km/h (2 Bft) 96,30 %
23.06.2021 00:16 13,8 C 12,8 C 12,3 C 98 % 1019,1 hPa 0,0 l/m 0 min 0 min 0 W/m 6,4 km/h (2 Bft) 89,80 %
23.06.2021 00:18 13,8 C 12,8 C 12,3 C 98 % 1019,1 hPa 0,0 l/m 0 min 0 min 0 W/m 6,4 km/h (2 Bft) 97,37 %
23.06.2021 00:20 13,8 C 12,8 C 12,3 C 98 % 1019,1 hPa 0,0 l/m 0 min 0 min 0 W/m 6,4 km/h (2 Bft) 100,00 %
23.06.2021 00:22 13,8 C 12,8 C 12,3 C 98 % 1019,1 hPa 0,0 l/m 0 min 0 min 0 W/m 9,7 km/h (2 Bft) 100,00 %
23.06.2021 00:24 13,7 C 12,8 C 12,3 C 98 % 1019,1 hPa 0,0 l/m 0 min 0 min 0 W/m 12,9 km/h (3 Bft) 98,00 %
23.06.2021 00:26 13,7 C 12,8 C 12,3 C 98 % 1019,1 hPa 0,0 l/m 0 min 0 min 0 W/m 3,2 km/h (1 Bft) 97,30 %
23.06.2021 00:28 13,6 C 12,8 C 12,3 C 98 % 1019,1 hPa 0,0 l/m 0 min 0 min 0 W/m 6,4 km/h (2 Bft) 100,00 %
23.06.2021 00:30 13,6 C 12,8 C 12,3 C 98 % 1019,1 hPa 0,0 l/m 0 min 0 min 0 W/m 6,4 km/h (2 Bft) 100,00 %
23.06.2021 00:32 13,6 C 12,8 C 12,3 C 98 % 1019,1 hPa 0,0 l/m 0 min 0 min 0 W/m 12,9 km/h (3 Bft) 98,00 %
23.06.2021 00:34 13,6 C 12,8 C 12,3 C 98 % 1019,2 hPa 0,0 l/m 0 min 0 min 0 W/m 6,4 km/h (2 Bft) 94,59 %
23.06.2021 00:36 13,6 C 12,8 C 12,3 C 98 % 1019,1 hPa 0,0 l/m 0 min 0 min 0 W/m 12,9 km/h (3 Bft) 100,00 %
23.06.2021 00:38 13,6 C 12,8 C 12,3 C 98 % 1019,1 hPa 0,0 l/m 0 min 0 min 0 W/m 12,9 km/h (3 Bft) 98,15 %
23.06.2021 00:40 13,6 C 12,8 C 12,3 C 98 % 1019,1 hPa 0,0 l/m 0 min 0 min 0 W/m 9,7 km/h (2 Bft) 100,00 %
23.06.2021 00:42 13,6 C 12,8 C 12,3 C 98 % 1019,1 hPa 0,0 l/m 0 min 0 min 0 W/m 16,1 km/h (3 Bft) 100,00 %
23.06.2021 00:44 13,5 C 12,8 C 12,3 C 98 % 1019,1 hPa 0,0 l/m 0 min 0 min 0 W/m 9,7 km/h (2 Bft) 95,74 %
23.06.2021 00:46 13,5 C 12,8 C 12,3 C 98 % 1019,1 hPa 0,0 l/m 0 min 0 min 0 W/m 3,2 km/h (1 Bft) 100,00 %
23.06.2021 00:48 13,5 C 12,8 C 12,3 C 98 % 1019,1 hPa 0,0 l/m 0 min 0 min 0 W/m 6,4 km/h (2 Bft) 97,87 %
23.06.2021 00:50 13,5 C 12,8 C 12,3 C 98 % 1019,0 hPa 0,0 l/m 0 min 0 min 0 W/m 9,7 km/h (2 Bft) 96,30 %
23.06.2021 00:52 13,5 C 12,8 C 12,3 C 98 % 1019,0 hPa 0,0 l/m 0 min 0 min 0 W/m 9,7 km/h (2 Bft) 97,96 %
23.06.2021 00:54 13,5 C 12,8 C 12,3 C 98 % 1019,0 hPa 0,0 l/m 0 min 0 min 0 W/m 9,7 km/h (2 Bft) 94,59 %
23.06.2021 00:56 13,5 C 12,8 C 12,3 C 98 % 1019,0 hPa 0,0 l/m 0 min 0 min 0 W/m 6,4 km/h (2 Bft) 97,87 %
23.06.2021 00:58 13,5 C 12,8 C 12,3 C 98 % 1019,0 hPa 0,0 l/m 0 min 0 min 0 W/m 3,2 km/h (1 Bft) 98,00 %
23.06.2021 01:00 13,5 C 12,8 C 12,3 C 98 % 1019,0 hPa 0,0 l/m 0 min 0 min 0 W/m 6,4 km/h (2 Bft) 95,74 %
23.06.2021 01:02 13,5 C 12,8 C 12,3 C 98 % 1019,0 hPa 0,0 l/m 0 min 0 min 0 W/m 9,7 km/h (2 Bft) 98,00 %
23.06.2021 01:04 13,5 C 12,8 C 12,3 C 98 % 1018,8 hPa 0,0 l/m 0 min 0 min 0 W/m 6,4 km/h (2 Bft) 95,24 %
23.06.2021 01:06 13,5 C 12,8 C 12,3 C 98 % 1018,9 hPa 0,0 l/m 0 min 0 min 0 W/m 16,1 km/h (3 Bft) 95,92 %
23.06.2021 01:08 13,5 C 12,8 C 12,3 C 98 % 1018,8 hPa 0,0 l/m 0 min 0 min 0 W/m 9,7 km/h (2 Bft) 93,88 %
23.06.2021 01:10 13,5 C 12,8 C 12,3 C 98 % 1018,8 hPa 0,0 l/m 0 min 0 min 0 W/m 9,7 km/h (2 Bft) 97,87 %
23.06.2021 01:12 13,4 C 12,8 C 12,3 C 98 % 1018,8 hPa 0,0 l/m 0 min 0 min 0 W/m 16,1 km/h (3 Bft) 97,87 %
23.06.2021 01:14 13,4 C 12,8 C 12,3 C 98 % 1018,7 hPa 0,0 l/m 0 min 0 min 0 W/m 19,3 km/h (3 Bft) 97,87 %
23.06.2021 01:16 13,4 C 12,8 C 12,3 C 98 % 1018,7 hPa 0,0 l/m 0 min 0 min 0 W/m 9,7 km/h (2 Bft) 97,62 %
23.06.2021 01:18 13,4 C 12,8 C 12,3 C 98 % 1018,8 hPa 0,0 l/m 0 min 0 min 0 W/m 6,4 km/h (2 Bft) 97,96 %
23.06.2021 01:20 13,4 C 12,8 C 12,3 C 98 % 1018,8 hPa 0,0 l/m 0 min 0 min 0 W/m 9,7 km/h (2 Bft) 97,96 %
23.06.2021 01:22 13,4 C 12,8 C 12,3 C 98 % 1018,8 hPa 0,0 l/m 0 min 0 min 0 W/m 6,4 km/h (2 Bft) 93,62 %
23.06.2021 01:24 13,4 C 12,8 C 12,3 C 98 % 1018,8 hPa 0,0 l/m 0 min 0 min 0 W/m 12,9 km/h (3 Bft) 97,87 %
23.06.2021 01:26 13,4 C 12,8 C 12,3 C 98 % 1018,8 hPa 0,0 l/m 0 min 0 min 0 W/m 12,9 km/h (3 Bft) 97,62 %
23.06.2021 01:28 13,4 C 12,8 C 12,3 C 98 % 1018,8 hPa 0,0 l/m 0 min 0 min 0 W/m 12,9 km/h (3 Bft) 97,96 %
23.06.2021 01:30 13,3 C 12,8 C 12,3 C 98 % 1018,8 hPa 0,0 l/m 0 min 0 min 0 W/m 19,3 km/h (3 Bft) 97,87 %
23.06.2021 01:32 13,3 C 12,8 C 12,3 C 98 % 1018,9 hPa 0,0 l/m 0 min 0 min 0 W/m 12,9 km/h (3 Bft) 97,87 %
23.06.2021 01:34 13,3 C 12,8 C 12,3 C 98 % 1018,9 hPa 0,0 l/m 0 min 0 min 0 W/m 6,4 km/h (2 Bft) 97,96 %
23.06.2021 01:36 13,3 C 12,8 C 12,3 C 98 % 1018,8 hPa 0,0 l/m 0 min 0 min 0 W/m 12,9 km/h (3 Bft) 97,87 %
23.06.2021 01:38 13,3 C 12,8 C 11,7 C 98 % 1018,8 hPa 0,0 l/m 0 min 0 min 0 W/m 6,4 km/h (2 Bft) 97,62 %
23.06.2021 01:40 13,3 C 12,8 C 12,3 C 98 % 1018,9 hPa 0,0 l/m 0 min 0 min 0 W/m 12,9 km/h (3 Bft) 95,65 %
23.06.2021 01:42 13,3 C 12,8 C 12,3 C 98 % 1018,9 hPa 0,0 l/m 0 min 0 min 0 W/m 16,1 km/h (3 Bft) 98,00 %
23.06.2021 01:44 13,2 C 12,8 C 12,3 C 98 % 1018,9 hPa 0,0 l/m 0 min 0 min 0 W/m 9,7 km/h (2 Bft) 97,96 %
23.06.2021 01:46 13,2 C 12,8 C 11,7 C 98 % 1018,9 hPa 0,0 l/m 0 min 0 min 0 W/m 9,7 km/h (2 Bft) 97,87 %
23.06.2021 01:48 13,2 C 12,8 C 12,3 C 98 % 1018,9 hPa 0,0 l/m 0 min 0 min 0 W/m 9,7 km/h (2 Bft) 97,87 %
23.06.2021 01:50 13,2 C 12,8 C 12,3 C 98 % 1018,9 hPa 0,0 l/m 0 min 0 min 0 W/m 9,7 km/h (2 Bft) 100,00 %
23.06.2021 01:52 13,2 C 12,8 C 11,7 C 98 % 1018,9 hPa 0,0 l/m 0 min 0 min 0 W/m 9,7 km/h (2 Bft) 100,00 %
23.06.2021 01:54 13,2 C 12,8 C 11,7 C 98 % 1019,0 hPa 0,0 l/m 0 min 0 min 0 W/m 6,4 km/h (2 Bft) 98,00 %
23.06.2021 01:56 13,1 C 12,8 C 12,3 C 98 % 1018,9 hPa 0,0 l/m 0 min 0 min 0 W/m 16,1 km/h (3 Bft) 97,96 %
23.06.2021 01:58 13,1 C 12,8 C 12,3 C 97 % 1018,9 hPa 0,0 l/m 0 min 0 min 0 W/m 9,7 km/h (2 Bft) 98,00 %
23.06.2021 02:00 13,1 C 12,8 C 11,7 C 97 % 1018,9 hPa 0,0 l/m 0 min 0 min 0 W/m 9,7 km/h (2 Bft) 100,00 %
23.06.2021 02:02 13,1 C 12,8 C 12,3 C 97 % 1019,0 hPa 0,0 l/m 0 min 0 min 0 W/m 6,4 km/h (2 Bft) 100,00 %
23.06.2021 02:04 13,1 C 12,8 C 11,7 C 97 % 1019,0 hPa 0,0 l/m 0 min 0 min 0 W/m 12,9 km/h (3 Bft) 97,83 %
23.06.2021 02:06 13,1 C 12,8 C 11,7 C 97 % 1018,9 hPa 0,0 l/m 0 min 0 min 0 W/m 12,9 km/h (3 Bft) 100,00 %
23.06.2021 02:08 13,1 C 12,8 C 11,7 C 97 % 1019,0 hPa 0,0 l/m 0 min 0 min 0 W/m 12,9 km/h (3 Bft) 97,87 %
23.06.2021 02:10 13,1 C 12,8 C 11,7 C 97 % 1019,0 hPa 0,0 l/m 0 min 0 min 0 W/m 16,1 km/h (3 Bft) 97,87 %
23.06.2021 02:12 13,1 C 12,2 C 11,7 C 97 % 1019,1 hPa 0,0 l/m 0 min 0 min 0 W/m 12,9 km/h (3 Bft) 95,74 %
23.06.2021 02:14 13,0 C 12,2 C 11,7 C 97 % 1019,0 hPa 0,0 l/m 0 min 0 min 0 W/m 12,9 km/h (3 Bft) 97,87 %
23.06.2021 02:16 13,0 C 12,8 C 11,7 C 97 % 1019,2 hPa 0,0 l/m 0 min 0 min 0 W/m 16,1 km/h (3 Bft) 97,83 %
23.06.2021 02:18 13,0 C 12,2 C 11,7 C 97 % 1019,2 hPa 0,0 l/m 0 min 0 min 0 W/m 19,3 km/h (3 Bft) 97,87 %
23.06.2021 02:20 13,0 C 12,2 C 11,7 C 97 % 1019,2 hPa 0,0 l/m 0 min 0 min 0 W/m 12,9 km/h (3 Bft) 97,87 %
23.06.2021 02:22 13,0 C 12,2 C 11,7 C 97 % 1019,2 hPa 0,0 l/m 0 min 0 min 0 W/m 12,9 km/h (3 Bft) 95,74 %
23.06.2021 02:24 13,0 C 12,2 C 11,7 C 97 % 1019,2 hPa 0,0 l/m 0 min 0 min 0 W/m 12,9 km/h (3 Bft) 97,87 %
23.06.2021 02:26 13,0 C 12,2 C 11,7 C 97 % 1019,3 hPa 0,0 l/m 0 min 0 min 0 W/m 22,5 km/h (4 Bft) 97,87 %
23.06.2021 02:28 13,0 C 12,2 C 11,7 C 97 % 1019,3 hPa 0,0 l/m 0 min 0 min 0 W/m 9,7 km/h (2 Bft) 97,83 %
23.06.2021 02:30 13,0 C 12,2 C 11,7 C 97 % 1019,3 hPa 0,0 l/m 0 min 0 min 0 W/m 12,9 km/h (3 Bft) 97,87 %
23.06.2021 02:32 13,0 C 12,2 C 11,7 C 97 % 1019,3 hPa 0,0 l/m 0 min 0 min 0 W/m 9,7 km/h (2 Bft) 97,87 %
23.06.2021 02:34 13,0 C 12,2 C 11,7 C 97 % 1019,3 hPa 0,0 l/m 0 min 0 min 0 W/m 16,1 km/h (3 Bft) 97,87 %
23.06.2021 02:36 13,0 C 12,2 C 11,7 C 97 % 1019,3 hPa 0,0 l/m 0 min 0 min 0 W/m 16,1 km/h (3 Bft) 97,87 %
23.06.2021 02:38 13,0 C 12,2 C 11,7 C 97 % 1019,3 hPa 0,0 l/m 0 min 0 min 0 W/m 6,4 km/h (2 Bft) 97,87 %
23.06.2021 02:40 13,0 C 12,2 C 11,7 C 97 % 1019,3 hPa 0,0 l/m 0 min 0 min 0 W/m 12,9 km/h (3 Bft) 97,83 %
23.06.2021 02:42 13,0 C 12,2 C 11,7 C 96 % 1019,3 hPa 0,0 l/m 0 min 0 min 0 W/m 16,1 km/h (3 Bft) 97,87 %
23.06.2021 02:44 13,0 C 12,2 C 11,7 C 96 % 1019,3 hPa 0,0 l/m 0 min 0 min 0 W/m 6,4 km/h (2 Bft) 97,87 %
23.06.2021 02:46 13,0 C 12,2 C 11,7 C 96 % 1019,4 hPa 0,0 l/m 0 min 0 min 0 W/m 19,3 km/h (3 Bft) 97,87 %
23.06.2021 02:48 13,0 C 12,2 C 11,7 C 96 % 1019,3 hPa 0,0 l/m 0 min 0 min 0 W/m 9,7 km/h (2 Bft) 97,87 %
23.06.2021 02:50 13,0 C 12,2 C 11,7 C 96 % 1019,4 hPa 0,0 l/m 0 min 0 min 0 W/m 16,1 km/h (3 Bft) 97,83 %
23.06.2021 02:52 13,0 C 12,2 C 11,7 C 96 % 1019,4 hPa 0,0 l/m 0 min 0 min 0 W/m 12,9 km/h (3 Bft) 97,87 %
23.06.2021 02:54 13,0 C 12,2 C 11,7 C 96 % 1019,4 hPa 0,0 l/m 0 min 0 min 0 W/m 3,2 km/h (1 Bft) 100,00 %
23.06.2021 02:56 13,0 C 12,2 C 11,7 C 96 % 1019,3 hPa 0,0 l/m 0 min 0 min 0 W/m 3,2 km/h (1 Bft) 100,00 %
23.06.2021 02:58 13,0 C 12,2 C 11,7 C 96 % 1019,3 hPa 0,0 l/m 0 min 0 min 0 W/m 6,4 km/h (2 Bft) 100,00 %
23.06.2021 03:00 13,0 C 12,2 C 11,7 C 96 % 1019,3 hPa 0,0 l/m 0 min 0 min 0 W/m 12,9 km/h (3 Bft) 97,87 %
23.06.2021 03:02 13,0 C 12,2 C 11,7 C 96 % 1019,4 hPa 0,0 l/m 0 min 0 min 0 W/m 16,1 km/h (3 Bft) 100,00 %
23.06.2021 03:04 13,0 C 12,2 C 11,7 C 96 % 1019,4 hPa 0,0 l/m 0 min 0 min 0 W/m 9,7 km/h (2 Bft) 100,00 %
23.06.2021 03:06 13,0 C 12,2 C 11,7 C 96 % 1019,4 hPa 0,0 l/m 0 min 0 min 0 W/m 16,1 km/h (3 Bft) 100,00 %
23.06.2021 03:08 13,0 C 12,2 C 11,7 C 96 % 1019,4 hPa 0,0 l/m 0 min 0 min 0 W/m 9,7 km/h (2 Bft) 100,00 %
23.06.2021 03:10 13,0 C 12,2 C 11,7 C 96 % 1019,4 hPa 0,0 l/m 0 min 0 min 0 W/m 9,7 km/h (2 Bft) 100,00 %
23.06.2021 03:12 13,0 C 12,2 C 11,7 C 96 % 1019,3 hPa 0,0 l/m 0 min 0 min 0 W/m 9,7 km/h (2 Bft) 97,83 %
23.06.2021 03:14 13,0 C 12,2 C 11,7 C 96 % 1019,3 hPa 0,0 l/m 0 min 0 min 0 W/m 9,7 km/h (2 Bft) 100,00 %
23.06.2021 03:16 13,0 C 12,2 C 11,7 C 96 % 1019,4 hPa 0,0 l/m 0 min 0 min 0 W/m 12,9 km/h (3 Bft) 100,00 %
23.06.2021 03:18 13,0 C 12,2 C 11,7 C 96 % 1019,3 hPa 0,0 l/m 0 min 0 min 0 W/m 9,7 km/h (2 Bft) 100,00 %
23.06.2021 03:20 13,0 C 12,2 C 11,7 C 96 % 1019,3 hPa 0,0 l/m 0 min 0 min 0 W/m 16,1 km/h (3 Bft) 97,87 %
23.06.2021 03:22 13,0 C 12,2 C 11,7 C 96 % 1019,3 hPa 0,0 l/m 0 min 0 min 0 W/m 16,1 km/h (3 Bft) 100,00 %
23.06.2021 03:24 13,0 C 12,2 C 11,7 C 96 % 1019,3 hPa 0,0 l/m 0 min 0 min 0 W/m 9,7 km/h (2 Bft) 100,00 %
23.06.2021 03:26 13,0 C 12,2 C 11,7 C 96 % 1019,3 hPa 0,0 l/m 0 min 0 min 0 W/m 6,4 km/h (2 Bft) 100,00 %
23.06.2021 03:28 13,0 C 12,2 C 11,7 C 96 % 1019,3 hPa 0,0 l/m 0 min 0 min 0 W/m 12,9 km/h (3 Bft) 100,00 %
23.06.2021 03:30 13,0 C 12,2 C 11,7 C 96 % 1019,2 hPa 0,0 l/m 0 min 0 min 0 W/m 16,1 km/h (3 Bft) 100,00 %
23.06.2021 03:32 13,0 C 12,2 C 11,7 C 96 % 1019,3 hPa 0,0 l/m 0 min 0 min 0 W/m 9,7 km/h (2 Bft) 100,00 %
23.06.2021 03:34 13,0 C 12,2 C 11,7 C 96 % 1019,2 hPa 0,0 l/m 0 min 0 min 0 W/m 12,9 km/h (3 Bft) 97,87 %
23.06.2021 03:36 13,0 C 12,2 C 11,7 C 96 % 1019,2 hPa 0,0 l/m 0 min 0 min 0 W/m 9,7 km/h (2 Bft) 100,00 %
23.06.2021 03:38 13,0 C 12,2 C 11,7 C 96 % 1019,2 hPa 0,0 l/m 0 min 0 min 0 W/m 9,7 km/h (2 Bft) 97,87 %
23.06.2021 03:40 13,0 C 12,2 C 11,7 C 96 % 1019,2 hPa 0,0 l/m 0 min 0 min 0 W/m 12,9 km/h (3 Bft) 100,00 %
23.06.2021 03:42 12,9 C 12,2 C 11,7 C 96 % 1019,2 hPa 0,0 l/m 0 min 0 min 0 W/m 6,4 km/h (2 Bft) 100,00 %
23.06.2021 03:44 12,9 C 12,2 C 11,7 C 96 % 1019,2 hPa 0,0 l/m 0 min 0 min 0 W/m 16,1 km/h (3 Bft) 100,00 %
23.06.2021 03:46 12,9 C 12,2 C 11,7 C 96 % 1019,2 hPa 0,0 l/m 0 min 0 min 0 W/m 12,9 km/h (3 Bft) 97,83 %
23.06.2021 03:48 12,9 C 12,2 C 11,7 C 96 % 1019,2 hPa 0,0 l/m 0 min 0 min 0 W/m 9,7 km/h (2 Bft) 100,00 %
23.06.2021 03:50 12,9 C 12,2 C 11,7 C 96 % 1019,2 hPa 0,0 l/m 0 min 0 min 0 W/m 9,7 km/h (2 Bft) 100,00 %
23.06.2021 03:52 12,9 C 12,2 C 11,7 C 96 % 1019,3 hPa 0,0 l/m 0 min 0 min 0 W/m 19,3 km/h (3 Bft) 97,87 %
23.06.2021 03:54 12,9 C 12,2 C 11,7 C 96 % 1019,3 hPa 0,0 l/m 0 min 0 min 0 W/m 9,7 km/h (2 Bft) 100,00 %
23.06.2021 03:56 12,9 C 12,2 C 11,7 C 96 % 1019,3 hPa 0,0 l/m 0 min 0 min 0 W/m 6,4 km/h (2 Bft) 97,87 %
23.06.2021 03:58 12,9 C 12,2 C 11,7 C 96 % 1019,3 hPa 0,0 l/m 0 min 0 min 0 W/m 9,7 km/h (2 Bft) 97,83 %
23.06.2021 04:00 12,9 C 12,2 C 11,7 C 96 % 1019,4 hPa 0,0 l/m 0 min 0 min 0 W/m 16,1 km/h (3 Bft) 97,87 %
23.06.2021 04:02 12,9 C 12,2 C 11,7 C 96 % 1019,4 hPa 0,0 l/m 0 min 0 min 0 W/m 12,9 km/h (3 Bft) 100,00 %
23.06.2021 04:04 12,9 C 12,2 C 11,7 C 96 % 1019,4 hPa 0,0 l/m 0 min 0 min 0 W/m 16,1 km/h (3 Bft) 97,87 %
23.06.2021 04:06 12,9 C 12,2 C 11,7 C 96 % 1019,4 hPa 0,0 l/m 0 min 0 min 0 W/m 9,7 km/h (2 Bft) 97,87 %
23.06.2021 04:08 12,9 C 12,2 C 11,7 C 96 % 1019,4 hPa 0,0 l/m 0 min 0 min 0 W/m 9,7 km/h (2 Bft) 97,87 %
23.06.2021 04:10 12,9 C 12,2 C 11,7 C 96 % 1019,4 hPa 0,0 l/m 0 min 0 min 0 W/m 6,4 km/h (2 Bft) 97,83 %
23.06.2021 04:12 12,9 C 12,2 C 11,7 C 96 % 1019,4 hPa 0,0 l/m 0 min 0 min 0 W/m 9,7 km/h (2 Bft) 97,87 %
23.06.2021 04:14 12,9 C 12,2 C 11,7 C 96 % 1019,5 hPa 0,0 l/m 0 min 0 min 0 W/m 6,4 km/h (2 Bft) 95,74 %
23.06.2021 04:16 12,9 C 12,2 C 11,7 C 96 % 1019,4 hPa 0,0 l/m 0 min 0 min 0 W/m 9,7 km/h (2 Bft) 97,87 %
23.06.2021 04:18 12,9 C 12,2 C 11,7 C 96 % 1019,4 hPa 0,0 l/m 0 min 0 min 0 W/m 6,4 km/h (2 Bft) 97,87 %
23.06.2021 04:20 12,9 C 12,2 C 11,7 C 96 % 1019,5 hPa 0,0 l/m 0 min 0 min 0 W/m 6,4 km/h (2 Bft) 97,83 %
23.06.2021 04:22 12,9 C 12,2 C 11,7 C 96 % 1019,4 hPa 0,0 l/m 0 min 0 min 0 W/m 6,4 km/h (2 Bft) 97,87 %
23.06.2021 04:24 12,9 C 12,2 C 11,7 C 96 % 1019,5 hPa 0,0 l/m 0 min 0 min 0 W/m 6,4 km/h (2 Bft) 95,74 %
23.06.2021 04:26 12,9 C 12,2 C 11,7 C 96 % 1019,5 hPa 0,0 l/m 0 min 0 min 0 W/m 9,7 km/h (2 Bft) 95,74 %
23.06.2021 04:28 12,9 C 12,2 C 11,7 C 96 % 1019,4 hPa 0,0 l/m 0 min 0 min 0 W/m 3,2 km/h (1 Bft) 97,87 %
23.06.2021 04:30 12,9 C 12,2 C 11,7 C 96 % 1019,5 hPa 0,0 l/m 0 min 0 min 0 W/m 6,4 km/h (2 Bft) 95,74 %
23.06.2021 04:32 12,9 C 12,2 C 11,7 C 96 % 1019,6 hPa 0,0 l/m 0 min 0 min 0 W/m 9,7 km/h (2 Bft) 95,65 %
23.06.2021 04:34 12,9 C 12,2 C 11,7 C 96 % 1019,6 hPa 0,0 l/m 0 min 0 min 0 W/m 3,2 km/h (1 Bft) 95,74 %
23.06.2021 04:36 12,9 C 12,2 C 11,7 C 96 % 1019,5 hPa 0,0 l/m 0 min 0 min 0 W/m 9,7 km/h (2 Bft) 97,87 %
23.06.2021 04:38 12,9 C 12,2 C 11,7 C 96 % 1019,5 hPa 0,0 l/m 0 min 0 min 0 W/m 9,7 km/h (2 Bft) 97,30 %
23.06.2021 04:40 12,8 C 12,2 C 11,7 C 96 % 1019,6 hPa 0,0 l/m 0 min 0 min 0 W/m 6,4 km/h (2 Bft) 52,27 %
23.06.2021 04:42 12,8 C 12,2 C 11,7 C 96 % 1019,6 hPa 0,0 l/m 0 min 0 min 0 W/m 9,7 km/h (2 Bft) 95,74 %
23.06.2021 04:44 12,8 C 12,2 C 11,7 C 96 % 1019,5 hPa 0,0 l/m 0 min 0 min 0 W/m 6,4 km/h (2 Bft) 93,62 %
23.06.2021 04:46 12,8 C 12,2 C 11,7 C 96 % 1019,6 hPa 0,0 l/m 0 min 0 min 0 W/m 9,7 km/h (2 Bft) 95,74 %
23.06.2021 04:48 12,8 C 12,2 C 11,7 C 96 % 1019,5 hPa 0,0 l/m 0 min 0 min 0 W/m 9,7 km/h (2 Bft) 97,83 %
23.06.2021 04:50 12,8 C 12,2 C 11,7 C 96 % 1019,6 hPa 0,0 l/m 0 min 0 min 0 W/m 12,9 km/h (3 Bft) 97,87 %
23.06.2021 04:52 12,8 C 12,2 C 11,7 C 96 % 1019,6 hPa 0,0 l/m 0 min 0 min 0 W/m 9,7 km/h (2 Bft) 97,87 %
23.06.2021 04:54 12,8 C 12,2 C 11,7 C 96 % 1019,6 hPa 0,0 l/m 0 min 0 min 0 W/m 9,7 km/h (2 Bft) 95,74 %
23.06.2021 04:56 12,8 C 12,2 C 11,7 C 96 % 1019,7 hPa 0,0 l/m 0 min 0 min 0 W/m 6,4 km/h (2 Bft) 93,62 %
23.06.2021 04:58 12,8 C 12,2 C 11,1 C 96 % 1019,7 hPa 0,0 l/m 0 min 0 min 0 W/m 12,9 km/h (3 Bft) 97,83 %
23.06.2021 05:00 12,7 C 12,2 C 11,7 C 96 % 1019,6 hPa 0,0 l/m 0 min 0 min 0 W/m 16,1 km/h (3 Bft) 97,87 %
23.06.2021 05:02 12,8 C 12,2 C 11,7 C 96 % 1019,7 hPa 0,0 l/m 0 min 0 min 0 W/m 9,7 km/h (2 Bft) 97,87 %
23.06.2021 05:04 12,7 C 12,2 C 11,7 C 96 % 1019,7 hPa 0,0 l/m 0 min 0 min 0 W/m 9,7 km/h (2 Bft) 95,74 %
23.06.2021 05:06 12,7 C 12,2 C 11,7 C 96 % 1019,7 hPa 0,0 l/m 0 min 0 min 0 W/m 12,9 km/h (3 Bft) 97,87 %
23.06.2021 05:08 12,7 C 12,2 C 11,7 C 96 % 1019,7 hPa 0,0 l/m 0 min 0 min 0 W/m 6,4 km/h (2 Bft) 95,74 %
23.06.2021 05:10 12,7 C 12,2 C 11,7 C 96 % 1019,7 hPa 0,0 l/m 0 min 0 min 0 W/m 12,9 km/h (3 Bft) 97,83 %
23.06.2021 05:12 12,7 C 12,2 C 11,7 C 96 % 1019,6 hPa 0,0 l/m 0 min 0 min 0 W/m 3,2 km/h (1 Bft) 97,87 %
23.06.2021 05:14 12,7 C 12,2 C 11,7 C 96 % 1019,6 hPa 0,0 l/m 0 min 0 min 0 W/m 9,7 km/h (2 Bft) 95,74 %
23.06.2021 05:16 12,7 C 12,2 C 11,7 C 96 % 1019,6 hPa 0,0 l/m 0 min 0 min 0 W/m 6,4 km/h (2 Bft) 97,87 %
23.06.2021 05:18 12,7 C 12,2 C 11,7 C 96 % 1019,6 hPa 0,0 l/m 0 min 0 min 0 W/m 9,7 km/h (2 Bft) 97,87 %
23.06.2021 05:20 12,7 C 12,2 C 11,7 C 96 % 1019,5 hPa 0,0 l/m 0 min 0 min 0 W/m 9,7 km/h (2 Bft) 97,87 %
23.06.2021 05:22 12,6 C 12,2 C 11,7 C 96 % 1019,5 hPa 0,0 l/m 0 min 0 min 0 W/m 12,9 km/h (3 Bft) 95,65 %
23.06.2021 05:24 12,7 C 12,2 C 11,7 C 96 % 1019,6 hPa 0,0 l/m 0 min 0 min 0 W/m 6,4 km/h (2 Bft) 97,87 %
23.06.2021 05:26 12,6 C 12,2 C 11,7 C 96 % 1019,7 hPa 0,0 l/m 0 min 0 min 0 W/m 9,7 km/h (2 Bft) 97,87 %
23.06.2021 05:28 12,6 C 12,2 C 11,7 C 96 % 1019,7 hPa 0,0 l/m 0 min 0 min 0 W/m 6,4 km/h (2 Bft) 97,87 %
23.06.2021 05:30 12,6 C 12,2 C 11,7 C 96 % 1019,7 hPa 0,0 l/m 0 min 0 min 0 W/m 9,7 km/h (2 Bft) 100,00 %
23.06.2021 05:32 12,6 C 12,2 C 11,7 C 96 % 1019,8 hPa 0,0 l/m 0 min 0 min 0 W/m 3,2 km/h (1 Bft) 100,00 %
23.06.2021 05:34 12,6 C 12,2 C 11,7 C 96 % 1019,8 hPa 0,0 l/m 0 min 0 min 0 W/m 3,2 km/h (1 Bft) 100,00 %
23.06.2021 05:36 12,6 C 12,2 C 11,7 C 96 % 1019,8 hPa 0,0 l/m 0 min 0 min 0 W/m 6,4 km/h (2 Bft) 100,00 %
23.06.2021 05:38 12,6 C 12,2 C 11,7 C 96 % 1019,7 hPa 0,0 l/m 0 min 0 min 0 W/m 9,7 km/h (2 Bft) 97,87 %
23.06.2021 05:40 12,7 C 12,2 C 11,7 C 96 % 1019,8 hPa 0,0 l/m 0 min 0 min 0 W/m 6,4 km/h (2 Bft) 100,00 %
23.06.2021 05:42 12,6 C 12,2 C 11,7 C 96 % 1019,8 hPa 0,0 l/m 0 min 0 min 0 W/m 6,4 km/h (2 Bft) 100,00 %
23.06.2021 05:44 12,7 C 12,2 C 11,7 C 96 % 1019,8 hPa 0,0 l/m 0 min 0 min 0 W/m 6,4 km/h (2 Bft) 100,00 %
23.06.2021 05:46 12,7 C 12,2 C 11,7 C 96 % 1019,8 hPa 0,0 l/m 0 min 0 min 0 W/m 3,2 km/h (1 Bft) 100,00 %
23.06.2021 05:48 12,6 C 12,2 C 11,7 C 96 % 1019,9 hPa 0,0 l/m 0 min 0 min 5 W/m 9,7 km/h (2 Bft) 100,00 %
23.06.2021 05:50 12,7 C 12,2 C 11,7 C 96 % 1019,9 hPa 0,0 l/m 0 min 0 min 6 W/m 9,7 km/h (2 Bft) 100,00 %
23.06.2021 05:52 12,7 C 12,2 C 11,7 C 96 % 1019,8 hPa 0,0 l/m 0 min 0 min 7 W/m 3,2 km/h (1 Bft) 100,00 %
23.06.2021 05:54 12,7 C 12,2 C 11,7 C 96 % 1019,8 hPa 0,0 l/m 0 min 0 min 8 W/m 9,7 km/h (2 Bft) 97,87 %
23.06.2021 05:56 12,7 C 12,2 C 11,7 C 96 % 1019,8 hPa 0,0 l/m 0 min 0 min 9 W/m 12,9 km/h (3 Bft) 100,00 %
23.06.2021 05:58 12,7 C 12,2 C 11,7 C 96 % 1019,8 hPa 0,0 l/m 0 min 0 min 9 W/m 9,7 km/h (2 Bft) 100,00 %
23.06.2021 06:00 12,7 C 12,2 C 11,7 C 96 % 1019,9 hPa 0,0 l/m 0 min 0 min 9 W/m 6,4 km/h (2 Bft) 97,87 %
23.06.2021 06:02 12,7 C 12,2 C 11,7 C 96 % 1019,9 hPa 0,0 l/m 0 min 0 min 11 W/m 3,2 km/h (1 Bft) 97,87 %
23.06.2021 06:04 12,7 C 12,2 C 11,7 C 96 % 1019,9 hPa 0,0 l/m 0 min 0 min 12 W/m 6,4 km/h (2 Bft) 100,00 %
23.06.2021 06:08 12,8 C 12,2 C 11,7 C 96 % 1019,9 hPa 0,0 l/m 0 min 0 min 13 W/m 9,7 km/h (2 Bft) 100,00 %
23.06.2021 06:10 12,8 C 12,2 C 11,7 C 96 % 1019,9 hPa 0,0 l/m 0 min 0 min 14 W/m 6,4 km/h (2 Bft) 97,83 %
23.06.2021 06:12 12,8 C 12,2 C 11,7 C 96 % 1019,9 hPa 0,0 l/m 0 min 0 min 14 W/m 3,2 km/h (1 Bft) 100,00 %
23.06.2021 06:14 12,8 C 12,2 C 11,7 C 96 % 1019,9 hPa 0,0 l/m 0 min 0 min 14 W/m 9,7 km/h (2 Bft) 100,00 %
23.06.2021 06:16 12,8 C 12,2 C 11,7 C 96 % 1019,9 hPa 0,0 l/m 0 min 0 min 14 W/m 6,4 km/h (2 Bft) 100,00 %
23.06.2021 06:18 12,8 C 12,2 C 12,3 C 96 % 1019,9 hPa 0,0 l/m 0 min 0 min 16 W/m 12,9 km/h (3 Bft) 100,00 %
23.06.2021 06:20 12,8 C 12,2 C 12,3 C 96 % 1019,9 hPa 0,0 l/m 0 min 0 min 18 W/m 6,4 km/h (2 Bft) 100,00 %
23.06.2021 06:22 12,8 C 12,2 C 12,3 C 96 % 1019,9 hPa 0,0 l/m 0 min 0 min 20 W/m 16,1 km/h (3 Bft) 97,87 %
23.06.2021 06:24 12,8 C 12,2 C 12,3 C 96 % 1019,8 hPa 0,0 l/m 0 min 0 min 21 W/m 6,4 km/h (2 Bft) 97,87 %
23.06.2021 06:26 12,8 C 12,2 C 12,3 C 96 % 1019,8 hPa 0,0 l/m 0 min 0 min 21 W/m 6,4 km/h (2 Bft) 95,74 %
23.06.2021 06:28 12,8 C 12,2 C 12,3 C 96 % 1019,8 hPa 0,0 l/m 0 min 0 min 21 W/m 6,4 km/h (2 Bft) 95,74 %
23.06.2021 06:30 12,8 C 12,8 C 12,3 C 96 % 1019,8 hPa 0,0 l/m 0 min 0 min 21 W/m 9,7 km/h (2 Bft) 97,87 %
23.06.2021 06:32 12,8 C 12,2 C 12,3 C 96 % 1019,8 hPa 0,0 l/m 0 min 0 min 21 W/m 6,4 km/h (2 Bft) 97,83 %
23.06.2021 06:34 12,8 C 12,2 C 12,3 C 95 % 1019,8 hPa 0,0 l/m 0 min 0 min 20 W/m 16,1 km/h (3 Bft) 95,74 %
23.06.2021 06:36 12,8 C 12,2 C 12,3 C 95 % 1019,9 hPa 0,0 l/m 0 min 0 min 18 W/m 12,9 km/h (3 Bft) 97,87 %
23.06.2021 06:38 12,8 C 12,2 C 12,3 C 95 % 1019,9 hPa 0,0 l/m 0 min 0 min 18 W/m 9,7 km/h (2 Bft) 97,87 %
23.06.2021 06:40 12,9 C 12,2 C 12,3 C 95 % 1019,9 hPa 0,0 l/m 0 min 0 min 17 W/m 6,4 km/h (2 Bft) 97,87 %
23.06.2021 06:42 12,9 C 12,2 C 12,3 C 95 % 1019,9 hPa 0,0 l/m 0 min 0 min 16 W/m 6,4 km/h (2 Bft) 97,87 %
23.06.2021 06:44 12,9 C 12,2 C 12,3 C 95 % 1019,9 hPa 0,0 l/m 0 min 0 min 15 W/m 9,7 km/h (2 Bft) 97,83 %
23.06.2021 06:46 12,9 C 12,2 C 12,3 C 95 % 1020,0 hPa 0,0 l/m 0 min 0 min 15 W/m 9,7 km/h (2 Bft) 97,87 %
23.06.2021 06:48 12,9 C 12,2 C 12,3 C 95 % 1020,0 hPa 0,0 l/m 0 min 0 min 16 W/m 6,4 km/h (2 Bft) 97,87 %
23.06.2021 06:50 12,9 C 12,2 C 12,3 C 95 % 1020,0 hPa 0,0 l/m 0 min 0 min 18 W/m 6,4 km/h (2 Bft) 95,74 %
23.06.2021 06:52 12,9 C 12,8 C 12,3 C 95 % 1019,9 hPa 0,0 l/m 0 min 0 min 19 W/m 6,4 km/h (2 Bft) 97,87 %
23.06.2021 06:54 12,9 C 12,8 C 12,3 C 95 % 1020,0 hPa 0,0 l/m 0 min 0 min 21 W/m 9,7 km/h (2 Bft) 97,83 %
23.06.2021 06:56 12,9 C 12,8 C 12,3 C 95 % 1019,9 hPa 0,0 l/m 0 min 0 min 22 W/m 9,7 km/h (2 Bft) 97,87 %
23.06.2021 06:58 12,9 C 12,8 C 12,3 C 95 % 1019,9 hPa 0,0 l/m 0 min 0 min 23 W/m 6,4 km/h (2 Bft) 95,74 %
23.06.2021 07:00 12,9 C 12,8 C 12,3 C 95 % 1019,9 hPa 0,0 l/m 0 min 0 min 21 W/m 9,7 km/h (2 Bft) 95,74 %
23.06.2021 07:02 12,9 C 12,8 C 12,3 C 95 % 1019,9 hPa 0,0 l/m 0 min 0 min 21 W/m 6,4 km/h (2 Bft) 93,62 %
23.06.2021 07:04 12,9 C 12,8 C 12,3 C 95 % 1020,0 hPa 0,0 l/m 0 min 0 min 21 W/m 12,9 km/h (3 Bft) 95,74 %
23.06.2021 07:06 12,9 C 12,8 C 12,3 C 95 % 1019,9 hPa 0,0 l/m 0 min 0 min 22 W/m 3,2 km/h (1 Bft) 95,65 %
23.06.2021 07:08 12,9 C 12,8 C 12,3 C 95 % 1020,0 hPa 0,0 l/m 0 min 0 min 24 W/m 9,7 km/h (2 Bft) 95,74 %
23.06.2021 07:10 12,9 C 12,8 C 12,3 C 95 % 1019,9 hPa 0,0 l/m 0 min 0 min 27 W/m 9,7 km/h (2 Bft) 93,62 %
23.06.2021 07:12 12,9 C 12,8 C 12,3 C 95 % 1019,9 hPa 0,0 l/m 0 min 0 min 30 W/m 6,4 km/h (2 Bft) 91,49 %
23.06.2021 07:14 12,9 C 12,8 C 12,3 C 95 % 1019,9 hPa 0,0 l/m 0 min 0 min 33 W/m 9,7 km/h (2 Bft) 95,74 %
23.06.2021 07:16 13,0 C 12,8 C 12,3 C 95 % 1019,9 hPa 0,0 l/m 0 min 0 min 36 W/m 6,4 km/h (2 Bft) 95,74 %
23.06.2021 07:18 13,0 C 12,8 C 12,3 C 95 % 1019,9 hPa 0,0 l/m 0 min 0 min 37 W/m 9,7 km/h (2 Bft) 95,65 %
23.06.2021 07:20 13,0 C 12,8 C 12,3 C 95 % 1019,9 hPa 0,0 l/m 0 min 0 min 37 W/m 12,9 km/h (3 Bft) 93,62 %
23.06.2021 07:22 13,0 C 12,8 C 12,3 C 95 % 1019,9 hPa 0,0 l/m 0 min 0 min 35 W/m 3,2 km/h (1 Bft) 91,49 %
23.06.2021 07:24 13,0 C 12,8 C 12,3 C 95 % 1020,0 hPa 0,0 l/m 0 min 0 min 35 W/m 6,4 km/h (2 Bft) 93,62 %
23.06.2021 07:26 13,0 C 12,8 C 12,3 C 95 % 1020,0 hPa 0,0 l/m 0 min 0 min 35 W/m 6,4 km/h (2 Bft) 93,62 %
23.06.2021 07:28 13,0 C 12,8 C 12,3 C 95 % 1020,0 hPa 0,0 l/m 0 min 0 min 37 W/m 9,7 km/h (2 Bft) 91,49 %
23.06.2021 07:30 13,0 C 12,8 C 12,3 C 95 % 1020,0 hPa 0,0 l/m 0 min 0 min 39 W/m 9,7 km/h (2 Bft) 93,48 %
23.06.2021 07:32 13,1 C 12,8 C 12,3 C 95 % 1020,0 hPa 0,0 l/m 0 min 0 min 40 W/m 3,2 km/h (1 Bft) 93,62 %
23.06.2021 07:34 13,1 C 12,8 C 12,3 C 95 % 1020,0 hPa 0,0 l/m 0 min 0 min 42 W/m 9,7 km/h (2 Bft) 93,62 %
23.06.2021 07:36 13,1 C 12,8 C 12,8 C 95 % 1020,0 hPa 0,0 l/m 0 min 0 min 45 W/m 6,4 km/h (2 Bft) 95,74 %
23.06.2021 07:38 13,1 C 12,8 C 12,8 C 95 % 1020,0 hPa 0,0 l/m 0 min 0 min 46 W/m 12,9 km/h (3 Bft) 93,62 %
23.06.2021 07:40 13,1 C 12,8 C 12,8 C 95 % 1020,0 hPa 0,0 l/m 0 min 0 min 48 W/m 6,4 km/h (2 Bft) 93,62 %
23.06.2021 07:42 13,1 C 12,8 C 12,8 C 95 % 1020,0 hPa 0,0 l/m 0 min 0 min 49 W/m 6,4 km/h (2 Bft) 93,48 %
23.06.2021 07:44 13,1 C 12,8 C 12,8 C 95 % 1020,0 hPa 0,0 l/m 0 min 0 min 50 W/m 6,4 km/h (2 Bft) 95,74 %
23.06.2021 07:46 13,1 C 12,8 C 12,8 C 95 % 1020,0 hPa 0,0 l/m 0 min 0 min 51 W/m 6,4 km/h (2 Bft) 93,62 %
23.06.2021 07:48 13,2 C 12,8 C 12,8 C 95 % 1020,0 hPa 0,0 l/m 0 min 0 min 53 W/m 6,4 km/h (2 Bft) 95,74 %
23.06.2021 07:50 13,2 C 12,8 C 12,8 C 95 % 1020,0 hPa 0,0 l/m 0 min 0 min 54 W/m 9,7 km/h (2 Bft) 95,74 %
23.06.2021 07:52 13,2 C 12,8 C 12,8 C 95 % 1020,0 hPa 0,0 l/m 0 min 0 min 57 W/m 6,4 km/h (2 Bft) 97,87 %
23.06.2021 07:54 13,3 C 13,3 C 12,8 C 95 % 1020,1 hPa 0,0 l/m 0 min 0 min 60 W/m 6,4 km/h (2 Bft) 91,30 %
23.06.2021 07:56 13,3 C 13,3 C 12,8 C 95 % 1020,1 hPa 0,0 l/m 0 min 0 min 62 W/m 9,7 km/h (2 Bft) 93,62 %
23.06.2021 07:58 13,3 C 13,3 C 12,8 C 95 % 1020,1 hPa 0,0 l/m 0 min 0 min 64 W/m 9,7 km/h (2 Bft) 95,74 %
23.06.2021 08:00 13,3 C 13,3 C 12,8 C 94 % 1020,1 hPa 0,0 l/m 0 min 0 min 65 W/m 6,4 km/h (2 Bft) 91,49 %
23.06.2021 08:02 13,3 C 13,3 C 12,8 C 94 % 1020,1 hPa 0,0 l/m 0 min 0 min 68 W/m 9,7 km/h (2 Bft) 95,74 %
23.06.2021 08:04 13,4 C 13,3 C 12,8 C 94 % 1020,1 hPa 0,0 l/m 0 min 0 min 70 W/m 6,4 km/h (2 Bft) 93,48 %
23.06.2021 08:06 13,4 C 13,3 C 12,8 C 94 % 1020,1 hPa 0,0 l/m 0 min 0 min 74 W/m 6,4 km/h (2 Bft) 91,49 %
23.06.2021 08:08 13,4 C 13,3 C 12,8 C 94 % 1020,1 hPa 0,0 l/m 0 min 0 min 76 W/m 6,4 km/h (2 Bft) 95,74 %
23.06.2021 08:10 13,4 C 13,3 C 12,8 C 94 % 1020,2 hPa 0,0 l/m 0 min 0 min 76 W/m 9,7 km/h (2 Bft) 95,74 %
23.06.2021 08:12 13,4 C 13,3 C 12,8 C 94 % 1020,2 hPa 0,0 l/m 0 min 0 min 78 W/m 12,9 km/h (3 Bft) 97,87 %
23.06.2021 08:14 13,4 C 13,3 C 12,8 C 94 % 1020,2 hPa 0,0 l/m 0 min 0 min 80 W/m 16,1 km/h (3 Bft) 97,87 %
23.06.2021 08:16 13,5 C 13,3 C 13,4 C 94 % 1020,3 hPa 0,0 l/m 0 min 0 min 83 W/m 6,4 km/h (2 Bft) 97,83 %
23.06.2021 08:18 13,5 C 13,3 C 13,4 C 94 % 1020,3 hPa 0,0 l/m 0 min 0 min 88 W/m 12,9 km/h (3 Bft) 97,87 %
23.06.2021 08:20 13,5 C 13,3 C 13,4 C 94 % 1020,3 hPa 0,0 l/m 0 min 0 min 94 W/m 6,4 km/h (2 Bft) 100,00 %
23.06.2021 08:22 13,5 C 13,9 C 13,4 C 94 % 1020,3 hPa 0,0 l/m 0 min 0 min 98 W/m 6,4 km/h (2 Bft) 97,87 %
23.06.2021 08:24 13,5 C 13,9 C 13,4 C 94 % 1020,3 hPa 0,0 l/m 0 min 0 min 98 W/m 6,4 km/h (2 Bft) 95,74 %
23.06.2021 08:26 13,5 C 13,9 C 13,4 C 94 % 1020,3 hPa 0,0 l/m 0 min 0 min 95 W/m 6,4 km/h (2 Bft) 100,00 %
23.06.2021 08:28 13,5 C 13,3 C 13,4 C 93 % 1020,3 hPa 0,0 l/m 0 min 0 min 91 W/m 9,7 km/h (2 Bft) 95,65 %
23.06.2021 08:30 13,6 C 13,9 C 13,4 C 93 % 1020,4 hPa 0,0 l/m 0 min 0 min 90 W/m 9,7 km/h (2 Bft) 100,00 %
23.06.2021 08:32 13,6 C 13,9 C 13,4 C 93 % 1020,4 hPa 0,0 l/m 0 min 0 min 91 W/m 9,7 km/h (2 Bft) 100,00 %
23.06.2021 08:34 13,6 C 13,9 C 13,4 C 93 % 1020,4 hPa 0,0 l/m 0 min 0 min 92 W/m 6,4 km/h (2 Bft) 100,00 %
23.06.2021 08:36 13,6 C 13,9 C 13,4 C 93 % 1020,5 hPa 0,0 l/m 0 min 0 min 93 W/m 9,7 km/h (2 Bft) 100,00 %
23.06.2021 08:38 13,7 C 13,9 C 13,4 C 93 % 1020,4 hPa 0,0 l/m 0 min 0 min 93 W/m 6,4 km/h (2 Bft) 97,87 %
23.06.2021 08:40 13,7 C 13,9 C 13,4 C 93 % 1020,5 hPa 0,0 l/m 0 min 0 min 96 W/m 6,4 km/h (2 Bft) 100,00 %
23.06.2021 08:42 13,8 C 13,9 C 13,4 C 93 % 1020,5 hPa 0,0 l/m 0 min 0 min 98 W/m 9,7 km/h (2 Bft) 97,87 %
23.06.2021 08:44 13,8 C 13,9 C 13,4 C 93 % 1020,5 hPa 0,0 l/m 0 min 0 min 104 W/m 6,4 km/h (2 Bft) 100,00 %
23.06.2021 08:46 13,8 C 13,9 C 13,4 C 93 % 1020,5 hPa 0,0 l/m 0 min 0 min 109 W/m 9,7 km/h (2 Bft) 97,87 %
23.06.2021 08:47 13,8 C 13,9 C 13,4 C 93 % 1020,5 hPa 0,0 l/m 0 min 0 min 112 W/m 9,7 km/h (2 Bft) 100,00 %
23.06.2021 08:50 13,9 C 13,9 C 13,4 C 93 % 1020,5 hPa 0,0 l/m 0 min 0 min 113 W/m 6,4 km/h (2 Bft) 100,00 %
23.06.2021 08:52 13,9 C 13,9 C 13,4 C 93 % 1020,6 hPa 0,0 l/m 0 min 0 min 113 W/m 12,9 km/h (3 Bft) 100,00 %
23.06.2021 08:54 13,9 C 13,9 C 13,4 C 92 % 1020,6 hPa 0,0 l/m 0 min 0 min 111 W/m 9,7 km/h (2 Bft) 100,00 %
23.06.2021 08:56 13,9 C 13,9 C 13,4 C 92 % 1020,6 hPa 0,0 l/m 0 min 0 min 115 W/m 19,3 km/h (3 Bft) 97,87 %
23.06.2021 08:58 13,9 C 13,9 C 13,4 C 92 % 1020,6 hPa 0,0 l/m 0 min 0 min 122 W/m 9,7 km/h (2 Bft) 100,00 %
23.06.2021 09:00 14,0 C 13,9 C 13,4 C 92 % 1020,7 hPa 0,0 l/m 0 min 0 min 127 W/m 9,7 km/h (2 Bft) 100,00 %
23.06.2021 09:02 14,0 C 13,9 C 13,4 C 92 % 1020,6 hPa 0,0 l/m 0 min 0 min 128 W/m 9,7 km/h (2 Bft) 100,00 %
23.06.2021 09:04 14,0 C 13,9 C 13,9 C 92 % 1020,6 hPa 0,0 l/m 0 min 0 min 124 W/m 6,4 km/h (2 Bft) 100,00 %
23.06.2021 09:06 14,0 C 14,4 C 13,9 C 92 % 1020,6 hPa 0,0 l/m 0 min 0 min 119 W/m 6,4 km/h (2 Bft) 100,00 %
23.06.2021 09:08 14,0 C 14,4 C 13,9 C 92 % 1020,6 hPa 0,0 l/m 0 min 0 min 118 W/m 12,9 km/h (3 Bft) 97,87 %
23.06.2021 09:10 14,1 C 14,4 C 13,9 C 92 % 1020,6 hPa 0,0 l/m 0 min 0 min 118 W/m 16,1 km/h (3 Bft) 100,00 %
23.06.2021 09:12 14,1 C 14,4 C 13,9 C 92 % 1020,6 hPa 0,0 l/m 0 min 0 min 119 W/m 6,4 km/h (2 Bft) 100,00 %
23.06.2021 09:14 14,1 C 14,4 C 13,9 C 91 % 1020,7 hPa 0,0 l/m 0 min 0 min 119 W/m 6,4 km/h (2 Bft) 100,00 %
23.06.2021 09:16 14,2 C 14,4 C 13,9 C 91 % 1020,7 hPa 0,0 l/m 0 min 0 min 115 W/m 3,2 km/h (1 Bft) 100,00 %
23.06.2021 09:18 14,2 C 14,4 C 13,9 C 91 % 1020,7 hPa 0,0 l/m 0 min 0 min 114 W/m 6,4 km/h (2 Bft) 97,87 %
23.06.2021 09:20 14,2 C 14,4 C 13,9 C 91 % 1020,7 hPa 0,0 l/m 0 min 0 min 114 W/m 6,4 km/h (2 Bft) 100,00 %
23.06.2021 09:22 14,2 C 14,4 C 13,9 C 91 % 1020,7 hPa 0,0 l/m 0 min 0 min 112 W/m 9,7 km/h (2 Bft) 97,87 %
23.06.2021 09:24 14,2 C 13,9 C 13,9 C 91 % 1020,7 hPa 0,0 l/m 0 min 0 min 108 W/m 12,9 km/h (3 Bft) 100,00 %
23.06.2021 09:26 14,2 C 13,9 C 13,4 C 91 % 1020,7 hPa 0,0 l/m 0 min 0 min 106 W/m 12,9 km/h (3 Bft) 100,00 %
23.06.2021 09:28 14,2 C 13,9 C 13,4 C 91 % 1020,7 hPa 0,0 l/m 0 min 0 min 105 W/m 19,3 km/h (3 Bft) 100,00 %
23.06.2021 09:30 14,2 C 14,4 C 13,4 C 91 % 1020,7 hPa 0,0 l/m 0 min 0 min 106 W/m 6,4 km/h (2 Bft) 100,00 %
23.06.2021 09:32 14,2 C 13,9 C 13,4 C 91 % 1020,7 hPa 0,0 l/m 0 min 0 min 113 W/m 9,7 km/h (2 Bft) 100,00 %
23.06.2021 09:34 14,2 C 14,4 C 13,9 C 91 % 1020,7 hPa 0,0 l/m 0 min 0 min 125 W/m 6,4 km/h (2 Bft) 100,00 %
23.06.2021 09:36 14,2 C 14,4 C 13,9 C 91 % 1020,7 hPa 0,0 l/m 0 min 0 min 129 W/m 12,9 km/h (3 Bft) 100,00 %
23.06.2021 09:38 14,2 C 14,4 C 13,9 C 91 % 1020,8 hPa 0,0 l/m 0 min 0 min 128 W/m 6,4 km/h (2 Bft) 100,00 %
23.06.2021 09:40 14,2 C 14,4 C 13,9 C 91 % 1020,8 hPa 0,0 l/m 0 min 0 min 125 W/m 12,9 km/h (3 Bft) 97,87 %
23.06.2021 09:42 14,2 C 14,4 C 13,9 C 91 % 1020,8 hPa 0,0 l/m 0 min 0 min 130 W/m 12,9 km/h (3 Bft) 100,00 %
23.06.2021 09:44 14,3 C 14,4 C 13,9 C 91 % 1020,8 hPa 0,0 l/m 0 min 0 min 137 W/m 9,7 km/h (2 Bft) 100,00 %
23.06.2021 09:46 14,3 C 14,4 C 13,9 C 91 % 1020,8 hPa 0,0 l/m 0 min 0 min 139 W/m 12,9 km/h (3 Bft) 100,00 %
23.06.2021 09:48 14,3 C 14,4 C 13,9 C 90 % 1020,8 hPa 0,0 l/m 0 min 0 min 139 W/m 12,9 km/h (3 Bft) 97,87 %
23.06.2021 09:50 14,3 C 14,4 C 13,9 C 90 % 1020,9 hPa 0,0 l/m 0 min 0 min 139 W/m 9,7 km/h (2 Bft) 97,87 %
23.06.2021 09:52 14,4 C 14,4 C 13,9 C 90 % 1020,8 hPa 0,0 l/m 0 min 0 min 139 W/m 12,9 km/h (3 Bft) 97,87 %
23.06.2021 09:54 14,4 C 14,4 C 13,9 C 90 % 1020,9 hPa 0,0 l/m 0 min 0 min 144 W/m 9,7 km/h (2 Bft) 97,14 %
23.06.2021 09:56 14,4 C 14,4 C 13,9 C 90 % 1020,8 hPa 0,0 l/m 0 min 0 min 154 W/m 3,2 km/h (1 Bft) 98,15 %
23.06.2021 09:58 14,4 C 14,4 C 13,9 C 90 % 1020,8 hPa 0,0 l/m 0 min 0 min 165 W/m 9,7 km/h (2 Bft) 94,00 %
23.06.2021 10:00 14,5 C 14,4 C 13,9 C 90 % 1020,8 hPa 0,0 l/m 0 min 0 min 173 W/m 12,9 km/h (3 Bft) 95,92 %
23.06.2021 10:02 14,5 C 14,4 C 13,9 C 90 % 1020,8 hPa 0,0 l/m 0 min 0 min 185 W/m 9,7 km/h (2 Bft) 100,00 %
23.06.2021 10:04 14,5 C 15,0 C 13,9 C 90 % 1020,8 hPa 0,0 l/m 0 min 0 min 197 W/m 6,4 km/h (2 Bft) 95,74 %
23.06.2021 10:06 14,5 C 15,0 C 13,9 C 90 % 1020,8 hPa 0,0 l/m 0 min 0 min 202 W/m 12,9 km/h (3 Bft) 95,92 %
23.06.2021 10:08 14,6 C 15,0 C 13,9 C 91 % 1020,8 hPa 0,0 l/m 0 min 0 min 197 W/m 9,7 km/h (2 Bft) 97,87 %
23.06.2021 10:10 14,6 C 15,0 C 13,9 C 90 % 1020,8 hPa 0,0 l/m 0 min 0 min 196 W/m 9,7 km/h (2 Bft) 95,74 %
23.06.2021 10:12 14,6 C 15,0 C 14,5 C 90 % 1020,8 hPa 0,0 l/m 0 min 0 min 205 W/m 9,7 km/h (2 Bft) 97,83 %
23.06.2021 10:14 14,6 C 15,0 C 14,5 C 90 % 1020,8 hPa 0,0 l/m 0 min 0 min 214 W/m 16,1 km/h (3 Bft) 95,74 %
23.06.2021 10:16 14,7 C 15,0 C 14,5 C 90 % 1020,8 hPa 0,0 l/m 0 min 0 min 212 W/m 9,7 km/h (2 Bft) 95,35 %
23.06.2021 10:18 14,7 C 15,0 C 14,5 C 90 % 1020,8 hPa 0,0 l/m 0 min 0 min 199 W/m 12,9 km/h (3 Bft) 96,08 %
23.06.2021 10:20 14,7 C 15,0 C 14,5 C 89 % 1020,8 hPa 0,0 l/m 0 min 0 min 189 W/m 16,1 km/h (3 Bft) 93,62 %
23.06.2021 10:22 14,8 C 15,0 C 14,5 C 89 % 1020,8 hPa 0,0 l/m 0 min 0 min 194 W/m 12,9 km/h (3 Bft) 95,74 %
23.06.2021 10:24 14,8 C 15,0 C 14,5 C 89 % 1020,8 hPa 0,0 l/m 0 min 0 min 200 W/m 9,7 km/h (2 Bft) 95,35 %
23.06.2021 10:26 14,8 C 15,6 C 14,5 C 89 % 1020,8 hPa 0,0 l/m 0 min 0 min 208 W/m 9,7 km/h (2 Bft) 93,62 %
23.06.2021 10:28 14,9 C 15,6 C 14,5 C 89 % 1020,8 hPa 0,0 l/m 0 min 0 min 211 W/m 9,7 km/h (2 Bft) 95,74 %
23.06.2021 10:30 14,9 C 15,6 C 14,5 C 89 % 1020,8 hPa 0,0 l/m 0 min 0 min 202 W/m 6,4 km/h (2 Bft) 96,00 %
23.06.2021 10:32 15,0 C 15,6 C 14,5 C 89 % 1020,9 hPa 0,0 l/m 0 min 0 min 205 W/m 9,7 km/h (2 Bft) 97,87 %
23.06.2021 10:34 15,0 C 15,6 C 14,5 C 89 % 1020,9 hPa 0,0 l/m 0 min 0 min 215 W/m 12,9 km/h (3 Bft) 97,83 %
23.06.2021 10:36 15,0 C 15,6 C 14,5 C 89 % 1020,9 hPa 0,0 l/m 0 min 0 min 218 W/m 9,7 km/h (2 Bft) 97,73 %
23.06.2021 10:38 15,0 C 15,6 C 14,5 C 89 % 1020,9 hPa 0,0 l/m 0 min 0 min 214 W/m 12,9 km/h (3 Bft) 97,87 %
23.06.2021 10:40 15,0 C 15,6 C 14,5 C 89 % 1020,8 hPa 0,0 l/m 0 min 0 min 212 W/m 9,7 km/h (2 Bft) 96,00 %
23.06.2021 10:42 15,0 C 15,0 C 14,5 C 88 % 1020,9 hPa 0,0 l/m 0 min 0 min 225 W/m 9,7 km/h (2 Bft) 97,87 %
23.06.2021 10:44 15,0 C 15,6 C 14,5 C 89 % 1020,9 hPa 0,0 l/m 0 min 0 min 235 W/m 6,4 km/h (2 Bft) 95,74 %
23.06.2021 10:46 15,0 C 15,6 C 14,5 C 89 % 1020,9 hPa 0,0 l/m 0 min 0 min 235 W/m 6,4 km/h (2 Bft) 98,08 %
23.06.2021 10:48 15,1 C 15,6 C 14,5 C 89 % 1020,9 hPa 0,0 l/m 0 min 0 min 246 W/m 6,4 km/h (2 Bft) 97,87 %
23.06.2021 10:50 15,1 C 15,6 C 14,5 C 89 % 1020,9 hPa 0,0 l/m 0 min 0 min 259 W/m 9,7 km/h (2 Bft) 97,87 %
23.06.2021 10:52 15,1 C 16,1 C 15,0 C 89 % 1020,9 hPa 0,0 l/m 0 min 0 min 256 W/m 16,1 km/h (3 Bft) 97,87 %
23.06.2021 10:54 15,1 C 15,6 C 14,5 C 88 % 1020,9 hPa 0,0 l/m 0 min 0 min 251 W/m 12,9 km/h (3 Bft) 97,37 %
23.06.2021 10:56 15,2 C 16,1 C 15,0 C 88 % 1020,9 hPa 0,0 l/m 0 min 0 min 253 W/m 6,4 km/h (2 Bft) 98,00 %
23.06.2021 10:58 15,3 C 16,1 C 15,0 C 88 % 1020,9 hPa 0,0 l/m 0 min 0 min 249 W/m 9,7 km/h (2 Bft) 97,96 %
23.06.2021 11:00 15,3 C 16,1 C 15,0 C 88 % 1021,0 hPa 0,0 l/m 0 min 0 min 245 W/m 9,7 km/h (2 Bft) 97,22 %
23.06.2021 11:02 15,3 C 16,1 C 15,0 C 88 % 1021,0 hPa 0,0 l/m 0 min 0 min 248 W/m 6,4 km/h (2 Bft) 97,96 %
23.06.2021 11:04 15,4 C 16,1 C 15,0 C 87 % 1020,9 hPa 0,0 l/m 0 min 0 min 246 W/m 9,7 km/h (2 Bft) 98,21 %
23.06.2021 11:06 15,4 C 16,1 C 15,0 C 87 % 1020,9 hPa 0,0 l/m 0 min 0 min 229 W/m 9,7 km/h (2 Bft) 96,00 %
23.06.2021 11:08 15,5 C 16,1 C 15,0 C 87 % 1020,9 hPa 0,0 l/m 0 min 0 min 207 W/m 16,1 km/h (3 Bft) 100,00 %
23.06.2021 11:10 15,5 C 16,1 C 15,0 C 87 % 1020,9 hPa 0,0 l/m 0 min 0 min 214 W/m 9,7 km/h (2 Bft) 100,00 %
23.06.2021 11:12 15,5 C 16,1 C 15,0 C 87 % 1021,0 hPa 0,0 l/m 0 min 0 min 222 W/m 19,3 km/h (3 Bft) 100,00 %
23.06.2021 11:14 15,5 C 16,1 C 15,0 C 87 % 1021,0 hPa 0,0 l/m 0 min 0 min 218 W/m 12,9 km/h (3 Bft) 100,00 %
23.06.2021 11:16 15,5 C 16,1 C 15,0 C 87 % 1021,0 hPa 0,0 l/m 0 min 0 min 207 W/m 9,7 km/h (2 Bft) 100,00 %
23.06.2021 11:18 15,6 C 16,1 C 15,0 C 86 % 1021,0 hPa 0,0 l/m 0 min 0 min 198 W/m 6,4 km/h (2 Bft) 100,00 %
23.06.2021 11:20 15,6 C 16,1 C 15,0 C 86 % 1021,0 hPa 0,0 l/m 0 min 0 min 199 W/m 16,1 km/h (3 Bft) 100,00 %
23.06.2021 11:22 15,6 C 16,1 C 15,0 C 86 % 1020,9 hPa 0,0 l/m 0 min 0 min 201 W/m 9,7 km/h (2 Bft) 100,00 %
23.06.2021 11:24 15,6 C 16,1 C 15,0 C 86 % 1021,0 hPa 0,0 l/m 0 min 0 min 209 W/m 9,7 km/h (2 Bft) 100,00 %
23.06.2021 11:26 15,7 C 16,1 C 15,0 C 86 % 1020,9 hPa 0,0 l/m 0 min 0 min 211 W/m 12,9 km/h (3 Bft) 100,00 %
23.06.2021 11:28 15,7 C 16,1 C 15,0 C 86 % 1020,9 hPa 0,0 l/m 0 min 0 min 227 W/m 6,4 km/h (2 Bft) 100,00 %
23.06.2021 11:30 15,7 C 16,1 C 15,0 C 86 % 1020,9 hPa 0,0 l/m 0 min 0 min 259 W/m 9,7 km/h (2 Bft) 100,00 %
23.06.2021 11:32 15,8 C 16,7 C 15,0 C 86 % 1020,9 hPa 0,0 l/m 0 min 0 min 267 W/m 16,1 km/h (3 Bft) 100,00 %
23.06.2021 11:34 15,8 C 16,1 C 15,0 C 86 % 1020,9 hPa 0,0 l/m 0 min 0 min 248 W/m 12,9 km/h (3 Bft) 97,96 %
23.06.2021 11:36 15,8 C 16,7 C 15,0 C 86 % 1020,9 hPa 0,0 l/m 0 min 0 min 236 W/m 6,4 km/h (2 Bft) 100,00 %
23.06.2021 11:38 15,9 C 16,7 C 15,0 C 86 % 1020,9 hPa 0,0 l/m 0 min 0 min 234 W/m 9,7 km/h (2 Bft) 97,87 %
23.06.2021 11:40 15,9 C 16,7 C 15,6 C 86 % 1020,9 hPa 0,0 l/m 0 min 0 min 223 W/m 9,7 km/h (2 Bft) 100,00 %
23.06.2021 11:42 16,0 C 16,7 C 15,0 C 86 % 1021,0 hPa 0,0 l/m 0 min 0 min 202 W/m 6,4 km/h (2 Bft) 97,37 %
23.06.2021 11:44 16,0 C 16,7 C 15,0 C 86 % 1021,0 hPa 0,0 l/m 0 min 0 min 188 W/m 9,7 km/h (2 Bft) 100,00 %
23.06.2021 11:46 16,0 C 16,7 C 15,0 C 85 % 1021,0 hPa 0,0 l/m 0 min 0 min 188 W/m 9,7 km/h (2 Bft) 100,00 %
23.06.2021 11:48 16,0 C 16,1 C 15,0 C 85 % 1021,0 hPa 0,0 l/m 0 min 0 min 189 W/m 6,4 km/h (2 Bft) 100,00 %
23.06.2021 11:50 16,0 C 16,1 C 15,0 C 85 % 1021,0 hPa 0,0 l/m 0 min 0 min 185 W/m 6,4 km/h (2 Bft) 100,00 %
23.06.2021 11:52 16,0 C 16,1 C 15,0 C 85 % 1021,0 hPa 0,0 l/m 0 min 0 min 182 W/m 12,9 km/h (3 Bft) 100,00 %
23.06.2021 11:54 16,0 C 16,1 C 15,0 C 85 % 1021,1 hPa 0,0 l/m 0 min 0 min 192 W/m 9,7 km/h (2 Bft) 100,00 %
23.06.2021 11:56 16,0 C 16,1 C 15,0 C 85 % 1021,0 hPa 0,0 l/m 0 min 0 min 194 W/m 9,7 km/h (2 Bft) 100,00 %
23.06.2021 11:58 16,0 C 16,1 C 15,0 C 85 % 1021,0 hPa 0,0 l/m 0 min 0 min 185 W/m 9,7 km/h (2 Bft) 97,83 %
23.06.2021 12:00 16,0 C 16,1 C 15,0 C 85 % 1021,1 hPa 0,0 l/m 0 min 0 min 180 W/m 6,4 km/h (2 Bft) 100,00 %
23.06.2021 12:02 16,0 C 16,1 C 15,0 C 85 % 1021,0 hPa 0,0 l/m 0 min 0 min 186 W/m 6,4 km/h (2 Bft) 97,56 %
23.06.2021 12:04 16,0 C 16,1 C 15,0 C 85 % 1021,0 hPa 0,0 l/m 0 min 0 min 195 W/m 9,7 km/h (2 Bft) 98,21 %
23.06.2021 12:08 16,0 C 16,7 C 15,0 C 85 % 1021,0 hPa 0,0 l/m 0 min 0 min 201 W/m 12,9 km/h (3 Bft) 97,89 %
23.06.2021 12:10 16,0 C 16,1 C 15,0 C 85 % 1021,0 hPa 0,0 l/m 0 min 0 min 218 W/m 16,1 km/h (3 Bft) 97,37 %
23.06.2021 12:12 16,1 C 16,7 C 15,0 C 84 % 1021,0 hPa 0,0 l/m 0 min 0 min 225 W/m 6,4 km/h (2 Bft) 97,87 %
23.06.2021 12:14 16,1 C 16,7 C 15,0 C 84 % 1021,0 hPa 0,0 l/m 0 min 0 min 223 W/m 19,3 km/h (3 Bft) 97,87 %
23.06.2021 12:16 16,1 C 16,7 C 15,0 C 84 % 1021,0 hPa 0,0 l/m 0 min 0 min 214 W/m 12,9 km/h (3 Bft) 97,87 %
23.06.2021 12:18 16,1 C 16,7 C 15,0 C 84 % 1021,0 hPa 0,0 l/m 0 min 0 min 200 W/m 6,4 km/h (2 Bft) 95,74 %
23.06.2021 12:20 16,1 C 16,7 C 15,0 C 84 % 1021,0 hPa 0,0 l/m 0 min 0 min 205 W/m 16,1 km/h (3 Bft) 97,87 %
23.06.2021 12:22 16,1 C 16,7 C 15,0 C 84 % 1021,0 hPa 0,0 l/m 0 min 0 min 219 W/m 12,9 km/h (3 Bft) 95,65 %
23.06.2021 12:24 16,1 C 16,7 C 15,0 C 84 % 1021,0 hPa 0,0 l/m 0 min 0 min 240 W/m 12,9 km/h (3 Bft) 93,62 %
23.06.2021 12:26 16,1 C 16,7 C 15,6 C 84 % 1021,1 hPa 0,0 l/m 0 min 0 min 243 W/m 19,3 km/h (3 Bft) 97,87 %
23.06.2021 12:28 16,1 C 16,7 C 15,0 C 83 % 1021,1 hPa 0,0 l/m 0 min 0 min 236 W/m 12,9 km/h (3 Bft) 95,74 %
23.06.2021 12:30 16,1 C 16,7 C 15,6 C 84 % 1021,1 hPa 0,0 l/m 0 min 0 min 224 W/m 6,4 km/h (2 Bft) 95,74 %
23.06.2021 12:32 16,2 C 16,7 C 15,6 C 84 % 1021,1 hPa 0,0 l/m 0 min 0 min 207 W/m 12,9 km/h (3 Bft) 95,65 %
23.06.2021 12:34 16,2 C 16,7 C 15,0 C 83 % 1021,1 hPa 0,0 l/m 0 min 0 min 219 W/m 9,7 km/h (2 Bft) 95,74 %
23.06.2021 12:36 16,3 C 16,7 C 15,6 C 84 % 1021,1 hPa 0,0 l/m 0 min 0 min 236 W/m 16,1 km/h (3 Bft) 94,92 %
23.06.2021 12:38 16,3 C 16,7 C 15,6 C 84 % 1021,1 hPa 0,0 l/m 0 min 0 min 248 W/m 12,9 km/h (3 Bft) 95,74 %
23.06.2021 12:40 16,3 C 16,7 C 15,6 C 84 % 1021,1 hPa 0,0 l/m 0 min 0 min 252 W/m 9,7 km/h (2 Bft) 97,14 %
23.06.2021 12:42 16,4 C 17,2 C 15,6 C 84 % 1021,1 hPa 0,0 l/m 0 min 0 min 246 W/m 9,7 km/h (2 Bft) 93,62 %
23.06.2021 12:44 16,4 C 16,7 C 15,6 C 84 % 1021,1 hPa 0,0 l/m 0 min 0 min 223 W/m 12,9 km/h (3 Bft) 95,74 %
23.06.2021 12:46 16,4 C 16,7 C 15,6 C 83 % 1021,1 hPa 0,0 l/m 0 min 0 min 213 W/m 12,9 km/h (3 Bft) 96,23 %
23.06.2021 12:48 16,4 C 16,7 C 15,6 C 83 % 1021,1 hPa 0,0 l/m 0 min 0 min 219 W/m 6,4 km/h (2 Bft) 95,74 %
23.06.2021 12:50 16,4 C 16,7 C 15,0 C 82 % 1021,1 hPa 0,0 l/m 0 min 0 min 240 W/m 12,9 km/h (3 Bft) 95,12 %
23.06.2021 12:52 16,4 C 16,7 C 15,6 C 83 % 1021,1 hPa 0,0 l/m 0 min 0 min 265 W/m 16,1 km/h (3 Bft) 95,74 %
23.06.2021 12:54 16,4 C 16,7 C 15,6 C 83 % 1021,1 hPa 0,0 l/m 0 min 0 min 284 W/m 12,9 km/h (3 Bft) 97,87 %
23.06.2021 12:56 16,4 C 17,2 C 15,6 C 83 % 1021,1 hPa 0,0 l/m 0 min 0 min 310 W/m 12,9 km/h (3 Bft) 95,65 %
23.06.2021 12:58 16,5 C 17,2 C 15,6 C 83 % 1021,1 hPa 0,0 l/m 0 min 0 min 340 W/m 12,9 km/h (3 Bft) 94,00 %
23.06.2021 13:00 16,5 C 17,2 C 15,6 C 83 % 1021,1 hPa 0,0 l/m 0 min 0 min 356 W/m 16,1 km/h (3 Bft) 95,74 %
23.06.2021 13:02 16,6 C 17,2 C 15,6 C 83 % 1021,1 hPa 0,0 l/m 0 min 0 min 350 W/m 12,9 km/h (3 Bft) 94,00 %
23.06.2021 13:04 16,6 C 17,8 C 16,1 C 83 % 1021,1 hPa 0,0 l/m 0 min 0 min 331 W/m 16,1 km/h (3 Bft) 97,14 %
23.06.2021 13:06 16,7 C 17,8 C 16,1 C 83 % 1021,1 hPa 0,0 l/m 0 min 0 min 307 W/m 9,7 km/h (2 Bft) 94,34 %
23.06.2021 13:08 16,8 C 17,8 C 16,1 C 83 % 1021,1 hPa 0,0 l/m 0 min 0 min 281 W/m 9,7 km/h (2 Bft) 97,96 %
23.06.2021 13:10 16,8 C 17,2 C 15,6 C 82 % 1021,2 hPa 0,0 l/m 0 min 0 min 263 W/m 22,5 km/h (4 Bft) 100,00 %
23.06.2021 13:12 16,8 C 17,2 C 15,6 C 82 % 1021,2 hPa 0,0 l/m 0 min 0 min 252 W/m 12,9 km/h (3 Bft) 98,00 %
23.06.2021 13:14 16,9 C 17,2 C 15,6 C 81 % 1021,2 hPa 0,0 l/m 0 min 0 min 254 W/m 16,1 km/h (3 Bft) 100,00 %
23.06.2021 13:16 16,9 C 17,2 C 15,6 C 81 % 1021,2 hPa 0,0 l/m 0 min 0 min 275 W/m 16,1 km/h (3 Bft) 100,00 %
23.06.2021 13:18 16,9 C 17,2 C 15,6 C 81 % 1021,2 hPa 0,0 l/m 0 min 0 min 304 W/m 19,3 km/h (3 Bft) 96,36 %
23.06.2021 13:20 16,9 C 17,2 C 15,6 C 81 % 1021,2 hPa 0,0 l/m 0 min 0 min 335 W/m 9,7 km/h (2 Bft) 100,00 %
23.06.2021 13:22 16,9 C 17,8 C 16,1 C 81 % 1021,1 hPa 0,0 l/m 0 min 0 min 349 W/m 9,7 km/h (2 Bft) 97,14 %
23.06.2021 13:24 17,0 C 17,8 C 16,1 C 81 % 1021,1 hPa 0,0 l/m 0 min 0 min 335 W/m 19,3 km/h (3 Bft) 100,00 %
23.06.2021 13:26 17,0 C 17,8 C 16,1 C 81 % 1021,1 hPa 0,0 l/m 0 min 0 min 324 W/m 16,1 km/h (3 Bft) 100,00 %
23.06.2021 13:28 17,0 C 17,8 C 16,1 C 81 % 1021,1 hPa 0,0 l/m 0 min 0 min 333 W/m 12,9 km/h (3 Bft) 97,87 %
23.06.2021 13:30 17,1 C 17,8 C 16,1 C 81 % 1021,1 hPa 0,0 l/m 0 min 0 min 343 W/m 16,1 km/h (3 Bft) 95,74 %
23.06.2021 13:32 17,1 C 17,8 C 16,1 C 81 % 1021,1 hPa 0,0 l/m 0 min 0 min 359 W/m 12,9 km/h (3 Bft) 98,08 %
23.06.2021 13:34 17,1 C 18,3 C 16,1 C 80 % 1021,1 hPa 0,0 l/m 0 min 0 min 381 W/m 3,2 km/h (1 Bft) 98,00 %
23.06.2021 13:36 17,3 C 18,3 C 16,7 C 81 % 1021,1 hPa 0,0 l/m 0 min 0 min 378 W/m 19,3 km/h (3 Bft) 97,87 %
23.06.2021 13:38 17,3 C 18,3 C 16,7 C 80 % 1021,1 hPa 0,0 l/m 0 min 0 min 377 W/m 12,9 km/h (3 Bft) 98,00 %
23.06.2021 13:40 17,3 C 17,8 C 16,7 C 80 % 1021,1 hPa 0,0 l/m 0 min 0 min 361 W/m 16,1 km/h (3 Bft) 97,83 %
23.06.2021 13:42 17,4 C 18,3 C 16,7 C 80 % 1021,1 hPa 0,0 l/m 0 min 0 min 324 W/m 12,9 km/h (3 Bft) 97,87 %
23.06.2021 13:44 17,4 C 18,3 C 16,7 C 80 % 1021,1 hPa 0,0 l/m 0 min 0 min 286 W/m 12,9 km/h (3 Bft) 91,43 %
23.06.2021 13:46 17,4 C 17,8 C 16,1 C 80 % 1021,1 hPa 0,0 l/m 0 min 0 min 273 W/m 19,3 km/h (3 Bft) 98,21 %
23.06.2021 13:48 17,4 C 17,8 C 16,1 C 80 % 1021,1 hPa 0,0 l/m 0 min 0 min 281 W/m 9,7 km/h (2 Bft) 98,00 %
23.06.2021 13:50 17,4 C 17,8 C 16,1 C 80 % 1021,1 hPa 0,0 l/m 0 min 0 min 292 W/m 3,2 km/h (1 Bft) 97,14 %
23.06.2021 13:52 17,4 C 18,3 C 16,1 C 80 % 1021,0 hPa 0,0 l/m 0 min 0 min 300 W/m 12,9 km/h (3 Bft) 98,18 %
23.06.2021 13:54 17,4 C 17,8 C 16,1 C 80 % 1021,2 hPa 0,0 l/m 0 min 0 min 320 W/m 12,9 km/h (3 Bft) 97,87 %
23.06.2021 13:56 17,4 C 17,8 C 16,1 C 80 % 1021,1 hPa 0,0 l/m 0 min 0 min 335 W/m 16,1 km/h (3 Bft) 96,00 %
23.06.2021 13:58 17,4 C 18,3 C 16,1 C 80 % 1021,1 hPa 0,0 l/m 0 min 0 min 354 W/m 12,9 km/h (3 Bft) 100,00 %
23.06.2021 14:00 17,5 C 18,3 C 16,1 C 80 % 1021,1 hPa 0,0 l/m 0 min 0 min 364 W/m 16,1 km/h (3 Bft) 95,74 %
23.06.2021 14:02 17,5 C 18,9 C 16,7 C 80 % 1021,1 hPa 0,0 l/m 0 min 0 min 347 W/m 12,9 km/h (3 Bft) 98,00 %
23.06.2021 14:04 17,5 C 18,3 C 16,7 C 80 % 1021,1 hPa 0,0 l/m 0 min 0 min 367 W/m 19,3 km/h (3 Bft) 98,00 %
23.06.2021 14:06 17,6 C 18,9 C 16,7 C 80 % 1021,1 hPa 0,0 l/m 0 min 0 min 405 W/m 6,4 km/h (2 Bft) 97,87 %
23.06.2021 14:08 17,6 C 18,9 C 16,7 C 80 % 1021,1 hPa 0,0 l/m 0 min 0 min 400 W/m 12,9 km/h (3 Bft) 95,74 %
23.06.2021 14:10 17,7 C 18,9 C 16,7 C 79 % 1021,1 hPa 0,0 l/m 0 min 0 min 368 W/m 9,7 km/h (2 Bft) 97,87 %
23.06.2021 14:12 17,8 C 18,9 C 16,7 C 79 % 1021,1 hPa 0,0 l/m 0 min 0 min 339 W/m 16,1 km/h (3 Bft) 97,87 %
23.06.2021 14:14 17,8 C 18,9 C 16,7 C 79 % 1021,1 hPa 0,0 l/m 0 min 0 min 331 W/m 12,9 km/h (3 Bft) 97,67 %
23.06.2021 14:16 17,9 C 18,9 C 16,7 C 79 % 1021,0 hPa 0,0 l/m 0 min 0 min 323 W/m 6,4 km/h (2 Bft) 97,96 %
23.06.2021 14:18 17,9 C 18,9 C 16,7 C 80 % 1021,1 hPa 0,0 l/m 0 min 0 min 303 W/m 12,9 km/h (3 Bft) 97,92 %
23.06.2021 14:20 17,9 C 18,9 C 16,7 C 79 % 1021,1 hPa 0,0 l/m 0 min 0 min 287 W/m 12,9 km/h (3 Bft) 97,87 %
23.06.2021 14:22 17,9 C 18,3 C 16,7 C 79 % 1021,1 hPa 0,0 l/m 0 min 0 min 267 W/m 12,9 km/h (3 Bft) 97,67 %
23.06.2021 14:24 17,9 C 18,3 C 16,1 C 78 % 1021,1 hPa 0,0 l/m 0 min 0 min 254 W/m 16,1 km/h (3 Bft) 98,00 %
23.06.2021 14:26 17,9 C 18,3 C 16,1 C 78 % 1021,1 hPa 0,0 l/m 0 min 0 min 246 W/m 12,9 km/h (3 Bft) 95,83 %
23.06.2021 14:28 17,9 C 18,3 C 16,1 C 78 % 1021,1 hPa 0,0 l/m 0 min 0 min 244 W/m 16,1 km/h (3 Bft) 100,00 %
23.06.2021 14:30 17,9 C 17,8 C 16,1 C 78 % 1021,1 hPa 0,0 l/m 0 min 0 min 229 W/m 9,7 km/h (2 Bft) 100,00 %
23.06.2021 14:32 17,8 C 17,8 C 16,1 C 78 % 1021,1 hPa 0,0 l/m 0 min 0 min 214 W/m 16,1 km/h (3 Bft) 100,00 %
23.06.2021 14:34 17,8 C 17,8 C 16,1 C 78 % 1021,1 hPa 0,0 l/m 0 min 0 min 217 W/m 19,3 km/h (3 Bft) 100,00 %
23.06.2021 14:36 17,8 C 17,8 C 16,1 C 78 % 1021,1 hPa 0,0 l/m 0 min 0 min 222 W/m 12,9 km/h (3 Bft) 100,00 %
23.06.2021 14:38 17,8 C 17,8 C 16,1 C 78 % 1021,1 hPa 0,0 l/m 0 min 0 min 217 W/m 9,7 km/h (2 Bft) 100,00 %
23.06.2021 14:40 17,8 C 17,8 C 16,1 C 79 % 1021,1 hPa 0,0 l/m 0 min 0 min 212 W/m 16,1 km/h (3 Bft) 100,00 %
23.06.2021 14:42 17,7 C 17,8 C 15,6 C 78 % 1021,1 hPa 0,0 l/m 0 min 0 min 216 W/m 12,9 km/h (3 Bft) 100,00 %
23.06.2021 14:44 17,7 C 17,8 C 15,6 C 79 % 1021,1 hPa 0,0 l/m 0 min 0 min 227 W/m 12,9 km/h (3 Bft) 100,00 %
23.06.2021 14:46 17,7 C 17,8 C 16,1 C 79 % 1021,1 hPa 0,0 l/m 0 min 0 min 252 W/m 9,7 km/h (2 Bft) 100,00 %
23.06.2021 14:48 17,7 C 18,3 C 16,1 C 79 % 1021,1 hPa 0,0 l/m 0 min 0 min 272 W/m 6,4 km/h (2 Bft) 100,00 %
23.06.2021 14:50 17,7 C 18,3 C 16,1 C 79 % 1021,1 hPa 0,0 l/m 0 min 0 min 286 W/m 9,7 km/h (2 Bft) 100,00 %
23.06.2021 14:52 17,7 C 18,3 C 16,1 C 79 % 1021,1 hPa 0,0 l/m 0 min 0 min 291 W/m 16,1 km/h (3 Bft) 100,00 %
23.06.2021 14:54 17,8 C 18,3 C 16,1 C 79 % 1021,0 hPa 0,0 l/m 0 min 0 min 311 W/m 12,9 km/h (3 Bft) 100,00 %
23.06.2021 14:56 17,8 C 18,9 C 16,1 C 79 % 1021,1 hPa 0,0 l/m 0 min 0 min 346 W/m 16,1 km/h (3 Bft) 98,00 %
23.06.2021 14:58 17,8 C 18,9 C 16,1 C 79 % 1021,1 hPa 0,0 l/m 0 min 0 min 391 W/m 12,9 km/h (3 Bft) 97,87 %
23.06.2021 15:00 17,9 C 18,9 C 16,7 C 79 % 1021,1 hPa 0,0 l/m 0 min 0 min 404 W/m 6,4 km/h (2 Bft) 100,00 %
23.06.2021 15:02 17,9 C 19,4 C 16,7 C 79 % 1021,1 hPa 0,0 l/m 0 min 0 min 410 W/m 16,1 km/h (3 Bft) 97,96 %
23.06.2021 15:04 18,0 C 19,4 C 16,7 C 79 % 1021,0 hPa 0,0 l/m 0 min 0 min 418 W/m 16,1 km/h (3 Bft) 97,22 %
23.06.2021 15:06 18,0 C 20,0 C 16,7 C 79 % 1021,0 hPa 0,0 l/m 2 min 0 min 433 W/m 16,1 km/h (3 Bft) 97,87 %
23.06.2021 15:08 18,1 C 20,0 C 16,7 C 78 % 1021,0 hPa 0,0 l/m 2 min 0 min 464 W/m 16,1 km/h (3 Bft) 97,87 %
23.06.2021 15:10 18,1 C 20,0 C 17,3 C 79 % 1021,0 hPa 0,0 l/m 2 min 0 min 549 W/m 19,3 km/h (3 Bft) 97,87 %
23.06.2021 15:12 18,2 C 20,6 C 17,3 C 78 % 1021,0 hPa 0,0 l/m 2 min 0 min 662 W/m 25,7 km/h (4 Bft) 96,36 %
23.06.2021 15:14 18,3 C 20,6 C 17,3 C 78 % 1021,0 hPa 0,0 l/m 2 min 0 min 802 W/m 16,1 km/h (3 Bft) 95,65 %
23.06.2021 15:16 18,4 C 20,6 C 17,3 C 77 % 1021,0 hPa 0,0 l/m 2 min 0 min 694 W/m 22,5 km/h (4 Bft) 97,87 %
23.06.2021 15:18 18,4 C 20,6 C 17,3 C 77 % 1021,1 hPa 0,0 l/m 2 min 0 min 519 W/m 16,1 km/h (3 Bft) 98,00 %
23.06.2021 15:20 18,5 C 20,0 C 17,3 C 77 % 1021,1 hPa 0,0 l/m 2 min 0 min 437 W/m 19,3 km/h (3 Bft) 94,44 %
23.06.2021 15:22 18,5 C 19,4 C 17,3 C 77 % 1021,1 hPa 0,0 l/m 0 min 0 min 388 W/m 12,9 km/h (3 Bft) 97,87 %
23.06.2021 15:24 18,5 C 19,4 C 17,3 C 76 % 1021,1 hPa 0,0 l/m 0 min 0 min 362 W/m 9,7 km/h (2 Bft) 95,74 %
23.06.2021 15:26 18,5 C 19,4 C 17,3 C 77 % 1021,1 hPa 0,0 l/m 0 min 0 min 352 W/m 6,4 km/h (2 Bft) 98,15 %
23.06.2021 15:28 18,6 C 19,4 C 17,3 C 77 % 1021,2 hPa 0,0 l/m 0 min 0 min 350 W/m 16,1 km/h (3 Bft) 98,00 %
23.06.2021 15:30 18,5 C 19,4 C 16,7 C 76 % 1021,1 hPa 0,0 l/m 0 min 0 min 352 W/m 19,3 km/h (3 Bft) 97,22 %
23.06.2021 15:32 18,5 C 18,9 C 16,7 C 77 % 1021,2 hPa 0,0 l/m 0 min 0 min 362 W/m 22,5 km/h (4 Bft) 97,87 %
23.06.2021 15:34 18,5 C 18,9 C 16,7 C 76 % 1021,1 hPa 0,0 l/m 0 min 0 min 369 W/m 12,9 km/h (3 Bft) 97,87 %
23.06.2021 15:36 18,5 C 19,4 C 16,7 C 77 % 1021,2 hPa 0,0 l/m 0 min 0 min 375 W/m 16,1 km/h (3 Bft) 95,74 %
23.06.2021 15:38 18,5 C 19,4 C 16,7 C 77 % 1021,2 hPa 0,0 l/m 0 min 0 min 392 W/m 12,9 km/h (3 Bft) 97,87 %
23.06.2021 15:40 18,6 C 19,4 C 17,3 C 77 % 1021,2 hPa 0,0 l/m 2 min 0 min 426 W/m 9,7 km/h (2 Bft) 100,00 %
23.06.2021 15:42 18,6 C 19,4 C 17,3 C 77 % 1021,2 hPa 0,0 l/m 2 min 0 min 443 W/m 19,3 km/h (3 Bft) 100,00 %
23.06.2021 15:44 18,6 C 20,0 C 17,3 C 77 % 1021,1 hPa 0,0 l/m 2 min 0 min 429 W/m 16,1 km/h (3 Bft) 97,22 %
23.06.2021 15:46 18,8 C 20,0 C 17,3 C 77 % 1021,2 hPa 0,0 l/m 2 min 0 min 423 W/m 16,1 km/h (3 Bft) 100,00 %
23.06.2021 15:48 18,8 C 20,0 C 17,3 C 76 % 1021,1 hPa 0,0 l/m 2 min 0 min 425 W/m 12,9 km/h (3 Bft) 96,30 %
23.06.2021 15:50 18,9 C 20,0 C 17,3 C 76 % 1021,1 hPa 0,0 l/m 2 min 0 min 436 W/m 9,7 km/h (2 Bft) 96,00 %
23.06.2021 15:52 19,0 C 20,0 C 17,3 C 76 % 1021,1 hPa 0,0 l/m 2 min 0 min 455 W/m 16,1 km/h (3 Bft) 97,22 %
23.06.2021 15:54 19,0 C 20,6 C 17,3 C 76 % 1021,1 hPa 0,0 l/m 2 min 0 min 494 W/m 16,1 km/h (3 Bft) 97,87 %
23.06.2021 15:56 19,0 C 20,6 C 17,3 C 75 % 1021,1 hPa 0,0 l/m 2 min 0 min 497 W/m 16,1 km/h (3 Bft) 98,18 %
23.06.2021 15:58 19,0 C 20,0 C 17,8 C 75 % 1021,1 hPa 0,0 l/m 2 min 0 min 474 W/m 19,3 km/h (3 Bft) 98,00 %
23.06.2021 16:00 19,1 C 20,0 C 17,8 C 75 % 1021,2 hPa 0,0 l/m 2 min 0 min 425 W/m 16,1 km/h (3 Bft) 97,83 %
23.06.2021 16:02 19,1 C 20,0 C 17,8 C 75 % 1021,1 hPa 0,0 l/m 0 min 0 min 372 W/m 16,1 km/h (3 Bft) 92,11 %
23.06.2021 16:04 19,1 C 20,0 C 17,8 C 75 % 1021,1 hPa 0,0 l/m 0 min 0 min 348 W/m 12,9 km/h (3 Bft) 98,00 %
23.06.2021 16:06 19,2 C 20,0 C 17,3 C 76 % 1021,1 hPa 0,0 l/m 0 min 0 min 336 W/m 16,1 km/h (3 Bft) 97,87 %
23.06.2021 16:08 19,2 C 20,0 C 17,3 C 75 % 1021,1 hPa 0,0 l/m 0 min 0 min 334 W/m 22,5 km/h (4 Bft) 98,00 %
23.06.2021 16:10 19,1 C 19,4 C 17,3 C 75 % 1021,0 hPa 0,0 l/m 0 min 0 min 340 W/m 16,1 km/h (3 Bft) 97,87 %
23.06.2021 16:12 19,1 C 19,4 C 17,3 C 74 % 1021,1 hPa 0,0 l/m 0 min 0 min 341 W/m 9,7 km/h (2 Bft) 97,87 %
23.06.2021 16:14 19,1 C 19,4 C 17,3 C 75 % 1021,0 hPa 0,0 l/m 0 min 0 min 351 W/m 22,5 km/h (4 Bft) 97,87 %
23.06.2021 16:16 19,1 C 19,4 C 16,7 C 74 % 1021,0 hPa 0,0 l/m 2 min 0 min 401 W/m 16,1 km/h (3 Bft) 97,14 %
23.06.2021 16:18 19,1 C 19,4 C 16,7 C 74 % 1021,0 hPa 0,0 l/m 0 min 0 min 321 W/m 16,1 km/h (3 Bft) 97,87 %
23.06.2021 16:20 19,0 C 19,4 C 16,7 C 74 % 1021,0 hPa 0,0 l/m 0 min 0 min 300 W/m 19,3 km/h (3 Bft) 97,87 %
23.06.2021 16:22 19,0 C 19,4 C 16,7 C 74 % 1021,0 hPa 0,0 l/m 0 min 0 min 290 W/m 22,5 km/h (4 Bft) 97,87 %
23.06.2021 16:24 19,0 C 18,9 C 16,7 C 74 % 1021,0 hPa 0,0 l/m 0 min 0 min 288 W/m 16,1 km/h (3 Bft) 98,15 %
23.06.2021 16:26 18,9 C 18,9 C 16,7 C 75 % 1021,1 hPa 0,0 l/m 0 min 0 min 284 W/m 22,5 km/h (4 Bft) 97,87 %
23.06.2021 16:28 18,9 C 18,9 C 16,7 C 75 % 1021,0 hPa 0,0 l/m 0 min 0 min 273 W/m 22,5 km/h (4 Bft) 98,00 %
23.06.2021 16:30 18,8 C 18,9 C 16,7 C 75 % 1021,0 hPa 0,0 l/m 0 min 0 min 256 W/m 19,3 km/h (3 Bft) 93,62 %
23.06.2021 16:32 18,8 C 18,9 C 16,7 C 76 % 1021,0 hPa 0,0 l/m 0 min 0 min 236 W/m 12,9 km/h (3 Bft) 95,83 %
23.06.2021 16:34 18,8 C 18,9 C 16,7 C 76 % 1021,1 hPa 0,0 l/m 0 min 0 min 221 W/m 9,7 km/h (2 Bft) 100,00 %
23.06.2021 16:36 18,8 C 18,9 C 16,7 C 75 % 1021,0 hPa 0,0 l/m 0 min 0 min 215 W/m 12,9 km/h (3 Bft) 94,44 %
23.06.2021 16:38 18,8 C 18,9 C 16,7 C 75 % 1021,0 hPa 0,0 l/m 0 min 0 min 219 W/m 12,9 km/h (3 Bft) 97,87 %
23.06.2021 16:40 18,8 C 18,9 C 16,7 C 76 % 1021,0 hPa 0,0 l/m 0 min 0 min 229 W/m 12,9 km/h (3 Bft) 95,74 %
23.06.2021 16:42 18,8 C 18,9 C 16,7 C 76 % 1021,1 hPa 0,0 l/m 0 min 0 min 237 W/m 6,4 km/h (2 Bft) 98,00 %
23.06.2021 16:44 18,8 C 18,9 C 16,7 C 77 % 1021,1 hPa 0,0 l/m 0 min 0 min 244 W/m 12,9 km/h (3 Bft) 95,74 %
23.06.2021 16:46 18,8 C 18,9 C 16,7 C 76 % 1021,1 hPa 0,0 l/m 0 min 0 min 252 W/m 12,9 km/h (3 Bft) 97,87 %
23.06.2021 16:48 18,7 C 18,9 C 16,1 C 76 % 1021,0 hPa 0,0 l/m 0 min 0 min 263 W/m 19,3 km/h (3 Bft) 100,00 %
23.06.2021 16:50 18,7 C 18,9 C 16,7 C 76 % 1021,0 hPa 0,0 l/m 0 min 0 min 275 W/m 12,9 km/h (3 Bft) 100,00 %
23.06.2021 16:52 18,7 C 18,9 C 16,7 C 75 % 1021,0 hPa 0,0 l/m 0 min 0 min 279 W/m 16,1 km/h (3 Bft) 95,74 %
23.06.2021 16:54 18,7 C 18,9 C 16,7 C 75 % 1021,0 hPa 0,0 l/m 0 min 0 min 278 W/m 12,9 km/h (3 Bft) 98,18 %
23.06.2021 16:56 18,8 C 18,9 C 16,7 C 76 % 1021,0 hPa 0,0 l/m 0 min 0 min 278 W/m 16,1 km/h (3 Bft) 98,00 %
23.06.2021 16:58 18,7 C 18,9 C 16,7 C 75 % 1020,9 hPa 0,0 l/m 0 min 0 min 280 W/m 16,1 km/h (3 Bft) 97,96 %
23.06.2021 17:00 18,7 C 18,9 C 16,7 C 75 % 1020,9 hPa 0,0 l/m 0 min 0 min 285 W/m 19,3 km/h (3 Bft) 97,22 %
23.06.2021 17:02 18,7 C 18,9 C 16,7 C 75 % 1021,0 hPa 0,0 l/m 0 min 0 min 293 W/m 12,9 km/h (3 Bft) 97,96 %
23.06.2021 17:04 18,8 C 19,4 C 16,7 C 76 % 1021,0 hPa 0,0 l/m 0 min 0 min 289 W/m 12,9 km/h (3 Bft) 98,00 %
23.06.2021 17:06 18,8 C 18,9 C 16,7 C 76 % 1021,0 hPa 0,0 l/m 0 min 0 min 269 W/m 16,1 km/h (3 Bft) 97,87 %
23.06.2021 17:08 18,8 C 18,9 C 16,7 C 76 % 1020,9 hPa 0,0 l/m 0 min 0 min 254 W/m 12,9 km/h (3 Bft) 97,87 %
23.06.2021 17:10 18,8 C 18,9 C 16,7 C 76 % 1020,9 hPa 0,0 l/m 0 min 0 min 250 W/m 6,4 km/h (2 Bft) 97,87 %
23.06.2021 17:12 18,8 C 18,9 C 16,7 C 76 % 1020,9 hPa 0,0 l/m 0 min 0 min 259 W/m 12,9 km/h (3 Bft) 95,74 %
23.06.2021 17:14 18,8 C 18,9 C 16,7 C 76 % 1020,9 hPa 0,0 l/m 0 min 0 min 276 W/m 12,9 km/h (3 Bft) 97,87 %
23.06.2021 17:16 18,9 C 19,4 C 16,7 C 76 % 1020,9 hPa 0,0 l/m 0 min 0 min 293 W/m 9,7 km/h (2 Bft) 95,74 %
23.06.2021 17:18 18,9 C 19,4 C 16,7 C 76 % 1020,8 hPa 0,0 l/m 0 min 0 min 298 W/m 16,1 km/h (3 Bft) 97,67 %
23.06.2021 17:20 18,9 C 19,4 C 16,7 C 76 % 1020,8 hPa 0,0 l/m 0 min 0 min 295 W/m 16,1 km/h (3 Bft) 97,87 %
23.06.2021 17:22 18,9 C 19,4 C 16,7 C 75 % 1020,8 hPa 0,0 l/m 0 min 0 min 288 W/m 16,1 km/h (3 Bft) 95,92 %
23.06.2021 17:24 18,9 C 19,4 C 16,7 C 75 % 1020,9 hPa 0,0 l/m 0 min 0 min 280 W/m 12,9 km/h (3 Bft) 97,87 %
23.06.2021 17:26 18,9 C 19,4 C 16,7 C 76 % 1020,8 hPa 0,0 l/m 0 min 0 min 278 W/m 16,1 km/h (3 Bft) 97,92 %
23.06.2021 17:28 19,0 C 19,4 C 16,7 C 76 % 1020,8 hPa 0,0 l/m 0 min 0 min 273 W/m 16,1 km/h (3 Bft) 97,87 %
23.06.2021 17:30 19,0 C 19,4 C 16,7 C 76 % 1020,8 hPa 0,0 l/m 0 min 0 min 263 W/m 9,7 km/h (2 Bft) 95,74 %
23.06.2021 17:32 19,0 C 19,4 C 16,7 C 76 % 1020,8 hPa 0,0 l/m 0 min 0 min 251 W/m 12,9 km/h (3 Bft) 95,74 %
23.06.2021 17:34 19,0 C 19,4 C 16,7 C 76 % 1020,8 hPa 0,0 l/m 0 min 0 min 243 W/m 9,7 km/h (2 Bft) 95,24 %
23.06.2021 17:36 19,0 C 19,4 C 16,7 C 76 % 1020,8 hPa 0,0 l/m 0 min 0 min 243 W/m 3,2 km/h (1 Bft) 94,00 %
23.06.2021 17:38 19,1 C 19,4 C 16,7 C 76 % 1020,8 hPa 0,0 l/m 0 min 0 min 243 W/m 12,9 km/h (3 Bft) 95,74 %
23.06.2021 17:40 19,1 C 19,4 C 16,7 C 76 % 1020,8 hPa 0,0 l/m 0 min 0 min 243 W/m 22,5 km/h (4 Bft) 95,74 %
23.06.2021 17:42 19,1 C 18,9 C 16,7 C 75 % 1020,8 hPa 0,0 l/m 0 min 0 min 236 W/m 12,9 km/h (3 Bft) 93,75 %
23.06.2021 17:44 19,1 C 18,9 C 16,7 C 75 % 1020,7 hPa 0,0 l/m 0 min 0 min 225 W/m 16,1 km/h (3 Bft) 93,62 %
23.06.2021 17:46 19,1 C 18,9 C 16,7 C 76 % 1020,7 hPa 0,0 l/m 0 min 0 min 221 W/m 16,1 km/h (3 Bft) 95,24 %
23.06.2021 17:48 19,0 C 18,9 C 16,7 C 76 % 1020,7 hPa 0,0 l/m 0 min 0 min 220 W/m 9,7 km/h (2 Bft) 96,00 %
23.06.2021 17:50 19,0 C 18,9 C 16,7 C 76 % 1020,7 hPa 0,0 l/m 0 min 0 min 216 W/m 12,9 km/h (3 Bft) 95,74 %
23.06.2021 17:52 19,0 C 18,9 C 16,7 C 76 % 1020,7 hPa 0,0 l/m 0 min 0 min 208 W/m 12,9 km/h (3 Bft) 93,75 %
23.06.2021 17:54 19,0 C 18,9 C 16,7 C 76 % 1020,7 hPa 0,0 l/m 0 min 0 min 204 W/m 16,1 km/h (3 Bft) 97,87 %
23.06.2021 17:56 19,1 C 18,9 C 16,7 C 76 % 1020,6 hPa 0,0 l/m 0 min 0 min 204 W/m 9,7 km/h (2 Bft) 97,87 %
23.06.2021 17:58 19,1 C 18,9 C 16,7 C 76 % 1020,6 hPa 0,0 l/m 0 min 0 min 204 W/m 9,7 km/h (2 Bft) 97,96 %
23.06.2021 18:00 19,1 C 18,9 C 16,7 C 77 % 1020,6 hPa 0,0 l/m 0 min 0 min 206 W/m 6,4 km/h (2 Bft) 97,87 %
23.06.2021 18:02 19,1 C 19,4 C 16,7 C 77 % 1020,5 hPa 0,0 l/m 0 min 0 min 207 W/m 12,9 km/h (3 Bft) 97,96 %
23.06.2021 18:04 19,1 C 19,4 C 16,7 C 77 % 1020,5 hPa 0,0 l/m 0 min 0 min 202 W/m 12,9 km/h (3 Bft) 97,87 %
23.06.2021 18:08 19,1 C 18,9 C 16,7 C 77 % 1020,5 hPa 0,0 l/m 0 min 0 min 189 W/m 12,9 km/h (3 Bft) 97,59 %
23.06.2021 18:10 19,1 C 18,9 C 16,1 C 77 % 1020,4 hPa 0,0 l/m 0 min 0 min 182 W/m 12,9 km/h (3 Bft) 95,65 %
23.06.2021 18:12 19,0 C 18,9 C 16,1 C 77 % 1020,4 hPa 0,0 l/m 0 min 0 min 188 W/m 16,1 km/h (3 Bft) 95,74 %
23.06.2021 18:14 19,0 C 18,9 C 16,1 C 77 % 1020,5 hPa 0,0 l/m 0 min 0 min 195 W/m 16,1 km/h (3 Bft) 98,18 %
23.06.2021 18:16 19,0 C 18,9 C 16,1 C 77 % 1020,5 hPa 0,0 l/m 0 min 0 min 201 W/m 12,9 km/h (3 Bft) 100,00 %
23.06.2021 18:18 19,0 C 19,4 C 16,1 C 77 % 1020,5 hPa 0,0 l/m 0 min 0 min 206 W/m 19,3 km/h (3 Bft) 100,00 %
23.06.2021 18:20 18,9 C 18,9 C 16,1 C 77 % 1020,5 hPa 0,0 l/m 0 min 0 min 193 W/m 16,1 km/h (3 Bft) 97,22 %
23.06.2021 18:22 18,9 C 19,4 C 16,1 C 77 % 1020,5 hPa 0,0 l/m 0 min 0 min 175 W/m 9,7 km/h (2 Bft) 100,00 %
23.06.2021 18:24 18,9 C 19,4 C 16,1 C 77 % 1020,5 hPa 0,0 l/m 0 min 0 min 171 W/m 12,9 km/h (3 Bft) 100,00 %
23.06.2021 18:26 18,9 C 18,9 C 16,1 C 77 % 1020,5 hPa 0,0 l/m 0 min 0 min 183 W/m 19,3 km/h (3 Bft) 98,18 %
23.06.2021 18:28 18,9 C 18,9 C 16,1 C 77 % 1020,4 hPa 0,0 l/m 0 min 0 min 202 W/m 6,4 km/h (2 Bft) 100,00 %
23.06.2021 18:30 18,9 C 18,9 C 16,1 C 77 % 1020,4 hPa 0,0 l/m 0 min 0 min 220 W/m 6,4 km/h (2 Bft) 100,00 %
23.06.2021 18:32 18,9 C 19,4 C 16,1 C 78 % 1020,4 hPa 0,0 l/m 0 min 0 min 237 W/m 9,7 km/h (2 Bft) 100,00 %
23.06.2021 18:34 19,0 C 19,4 C 16,7 C 78 % 1020,5 hPa 0,0 l/m 2 min 0 min 240 W/m 12,9 km/h (3 Bft) 100,00 %
23.06.2021 18:36 19,0 C 19,4 C 16,7 C 78 % 1020,5 hPa 0,0 l/m 0 min 0 min 220 W/m 9,7 km/h (2 Bft) 100,00 %
23.06.2021 18:38 19,0 C 18,9 C 16,7 C 77 % 1020,5 hPa 0,0 l/m 0 min 0 min 199 W/m 12,9 km/h (3 Bft) 97,87 %
23.06.2021 18:40 19,0 C 19,4 C 16,7 C 78 % 1020,4 hPa 0,0 l/m 0 min 0 min 192 W/m 9,7 km/h (2 Bft) 100,00 %
23.06.2021 18:42 19,0 C 18,9 C 16,7 C 77 % 1020,5 hPa 0,0 l/m 0 min 0 min 187 W/m 16,1 km/h (3 Bft) 100,00 %
23.06.2021 18:44 19,0 C 18,9 C 16,7 C 77 % 1020,4 hPa 0,0 l/m 0 min 0 min 172 W/m 9,7 km/h (2 Bft) 100,00 %
23.06.2021 18:46 19,0 C 18,9 C 16,7 C 77 % 1020,4 hPa 0,0 l/m 0 min 0 min 158 W/m 9,7 km/h (2 Bft) 100,00 %
23.06.2021 18:48 19,1 C 18,9 C 16,7 C 77 % 1020,4 hPa 0,0 l/m 0 min 0 min 152 W/m 9,7 km/h (2 Bft) 95,74 %
23.06.2021 18:50 19,1 C 18,9 C 16,7 C 77 % 1020,4 hPa 0,0 l/m 0 min 0 min 153 W/m 9,7 km/h (2 Bft) 100,00 %
23.06.2021 18:52 19,1 C 19,4 C 16,7 C 78 % 1020,3 hPa 0,0 l/m 0 min 0 min 169 W/m 12,9 km/h (3 Bft) 100,00 %
23.06.2021 18:54 19,1 C 18,9 C 16,7 C 77 % 1020,4 hPa 0,0 l/m 0 min 0 min 179 W/m 19,3 km/h (3 Bft) 100,00 %
23.06.2021 18:56 19,1 C 18,9 C 16,1 C 77 % 1020,3 hPa 0,0 l/m 0 min 0 min 192 W/m 12,9 km/h (3 Bft) 100,00 %
23.06.2021 18:58 19,1 C 18,9 C 16,1 C 77 % 1020,3 hPa 0,0 l/m 0 min 0 min 193 W/m 16,1 km/h (3 Bft) 100,00 %
23.06.2021 19:00 19,1 C 18,9 C 16,7 C 77 % 1020,3 hPa 0,0 l/m 0 min 0 min 188 W/m 16,1 km/h (3 Bft) 100,00 %
23.06.2021 19:02 19,1 C 18,9 C 16,7 C 77 % 1020,3 hPa 0,0 l/m 0 min 0 min 185 W/m 25,7 km/h (4 Bft) 100,00 %
23.06.2021 19:04 19,1 C 18,9 C 16,7 C 77 % 1020,3 hPa 0,0 l/m 0 min 0 min 185 W/m 12,9 km/h (3 Bft) 100,00 %
23.06.2021 19:06 19,1 C 18,9 C 16,1 C 77 % 1020,3 hPa 0,0 l/m 0 min 0 min 189 W/m 12,9 km/h (3 Bft) 100,00 %
23.06.2021 19:08 19,1 C 18,9 C 16,1 C 77 % 1020,3 hPa 0,0 l/m 0 min 0 min 191 W/m 9,7 km/h (2 Bft) 100,00 %
23.06.2021 19:10 19,0 C 18,9 C 16,1 C 77 % 1020,3 hPa 0,0 l/m 0 min 0 min 178 W/m 25,7 km/h (4 Bft) 100,00 %
23.06.2021 19:12 19,0 C 18,9 C 16,1 C 77 % 1020,2 hPa 0,0 l/m 0 min 0 min 163 W/m 22,5 km/h (4 Bft) 100,00 %
23.06.2021 19:14 19,0 C 18,9 C 16,1 C 77 % 1020,2 hPa 0,0 l/m 0 min 0 min 150 W/m 22,5 km/h (4 Bft) 100,00 %
23.06.2021 19:16 19,0 C 18,9 C 16,1 C 77 % 1020,3 hPa 0,0 l/m 0 min 0 min 147 W/m 22,5 km/h (4 Bft) 100,00 %
23.06.2021 19:18 18,9 C 18,3 C 16,1 C 76 % 1020,1 hPa 0,0 l/m 0 min 0 min 147 W/m 19,3 km/h (3 Bft) 97,87 %
23.06.2021 19:20 18,9 C 18,3 C 16,1 C 76 % 1020,1 hPa 0,0 l/m 0 min 0 min 141 W/m 19,3 km/h (3 Bft) 98,15 %
23.06.2021 19:22 18,9 C 18,9 C 16,1 C 77 % 1020,2 hPa 0,0 l/m 0 min 0 min 143 W/m 19,3 km/h (3 Bft) 98,00 %
23.06.2021 19:24 18,9 C 18,9 C 16,1 C 77 % 1020,1 hPa 0,0 l/m 2 min 0 min 195 W/m 16,1 km/h (3 Bft) 97,92 %
23.06.2021 19:26 18,9 C 18,9 C 16,1 C 77 % 1020,1 hPa 0,0 l/m 2 min 0 min 242 W/m 9,7 km/h (2 Bft) 97,14 %
23.06.2021 19:28 18,9 C 18,9 C 16,1 C 78 % 1020,1 hPa 0,0 l/m 2 min 0 min 231 W/m 16,1 km/h (3 Bft) 97,87 %
23.06.2021 19:30 18,9 C 18,9 C 16,1 C 77 % 1020,1 hPa 0,0 l/m 2 min 0 min 207 W/m 25,7 km/h (4 Bft) 98,15 %
23.06.2021 19:32 18,9 C 18,9 C 16,1 C 77 % 1020,1 hPa 0,0 l/m 2 min 0 min 184 W/m 16,1 km/h (3 Bft) 98,00 %
23.06.2021 19:34 18,9 C 18,9 C 16,1 C 77 % 1020,2 hPa 0,0 l/m 2 min 0 min 178 W/m 9,7 km/h (2 Bft) 97,92 %
23.06.2021 19:36 18,9 C 18,9 C 16,1 C 77 % 1020,1 hPa 0,0 l/m 2 min 0 min 172 W/m 16,1 km/h (3 Bft) 97,87 %
23.06.2021 19:38 18,9 C 18,9 C 15,6 C 77 % 1020,1 hPa 0,0 l/m 2 min 0 min 170 W/m 12,9 km/h (3 Bft) 97,87 %
23.06.2021 19:40 18,8 C 18,9 C 16,1 C 77 % 1020,2 hPa 0,0 l/m 2 min 0 min 199 W/m 19,3 km/h (3 Bft) 97,87 %
23.06.2021 19:42 18,8 C 18,9 C 16,1 C 77 % 1020,2 hPa 0,0 l/m 2 min 0 min 210 W/m 22,5 km/h (4 Bft) 94,29 %
23.06.2021 19:44 18,8 C 18,9 C 16,1 C 77 % 1020,2 hPa 0,0 l/m 2 min 0 min 207 W/m 9,7 km/h (2 Bft) 98,15 %
23.06.2021 19:46 18,8 C 18,9 C 16,1 C 77 % 1020,2 hPa 0,0 l/m 2 min 0 min 175 W/m 12,9 km/h (3 Bft) 98,00 %
23.06.2021 19:48 18,9 C 18,9 C 16,1 C 77 % 1020,3 hPa 0,0 l/m 0 min 0 min 136 W/m 12,9 km/h (3 Bft) 97,92 %
23.06.2021 19:50 18,9 C 18,9 C 16,1 C 77 % 1020,3 hPa 0,0 l/m 0 min 0 min 127 W/m 29,0 km/h (5 Bft) 95,74 %
23.06.2021 19:52 18,8 C 18,9 C 16,1 C 77 % 1020,3 hPa 0,0 l/m 0 min 0 min 119 W/m 16,1 km/h (3 Bft) 97,14 %
23.06.2021 19:54 18,8 C 18,3 C 16,1 C 77 % 1020,3 hPa 0,0 l/m 0 min 0 min 107 W/m 12,9 km/h (3 Bft) 98,15 %
23.06.2021 19:56 18,8 C 18,3 C 15,6 C 77 % 1020,3 hPa 0,0 l/m 0 min 0 min 93 W/m 9,7 km/h (2 Bft) 98,00 %
23.06.2021 19:58 18,8 C 18,3 C 15,6 C 77 % 1020,3 hPa 0,0 l/m 0 min 0 min 86 W/m 12,9 km/h (3 Bft) 93,62 %
23.06.2021 20:00 18,7 C 18,3 C 15,6 C 78 % 1020,3 hPa 0,0 l/m 0 min 0 min 80 W/m 19,3 km/h (3 Bft) 98,00 %
23.06.2021 20:02 18,6 C 18,3 C 15,6 C 78 % 1020,3 hPa 0,0 l/m 0 min 0 min 74 W/m 9,7 km/h (2 Bft) 97,87 %
23.06.2021 20:04 18,6 C 17,8 C 15,6 C 78 % 1020,3 hPa 0,0 l/m 0 min 0 min 70 W/m 16,1 km/h (3 Bft) 97,62 %
23.06.2021 20:06 18,5 C 17,8 C 15,6 C 78 % 1020,3 hPa 0,0 l/m 0 min 0 min 69 W/m 19,3 km/h (3 Bft) 97,62 %
23.06.2021 20:08 18,5 C 17,8 C 15,6 C 78 % 1020,3 hPa 0,0 l/m 0 min 0 min 71 W/m 16,1 km/h (3 Bft) 93,62 %
23.06.2021 20:10 18,5 C 17,8 C 15,6 C 78 % 1020,3 hPa 0,0 l/m 0 min 0 min 76 W/m 12,9 km/h (3 Bft) 91,49 %
23.06.2021 20:12 18,4 C 17,8 C 15,6 C 78 % 1020,4 hPa 0,0 l/m 0 min 0 min 77 W/m 19,3 km/h (3 Bft) 91,49 %
23.06.2021 20:14 18,4 C 17,8 C 15,6 C 78 % 1020,3 hPa 0,0 l/m 0 min 0 min 76 W/m 12,9 km/h (3 Bft) 94,00 %
23.06.2021 20:16 18,3 C 17,8 C 15,6 C 78 % 1020,4 hPa 0,0 l/m 0 min 0 min 73 W/m 12,9 km/h (3 Bft) 95,65 %
23.06.2021 20:18 18,3 C 17,8 C 15,6 C 79 % 1020,4 hPa 0,0 l/m 0 min 0 min 65 W/m 16,1 km/h (3 Bft) 95,74 %
23.06.2021 20:20 18,3 C 17,8 C 15,6 C 79 % 1020,4 hPa 0,0 l/m 0 min 0 min 62 W/m 12,9 km/h (3 Bft) 95,35 %
23.06.2021 20:22 18,3 C 17,8 C 15,0 C 79 % 1020,5 hPa 0,0 l/m 0 min 0 min 62 W/m 19,3 km/h (3 Bft) 96,00 %
23.06.2021 20:24 18,2 C 17,2 C 15,0 C 79 % 1020,5 hPa 0,0 l/m 0 min 0 min 63 W/m 6,4 km/h (2 Bft) 95,83 %
23.06.2021 20:26 18,2 C 17,2 C 15,0 C 79 % 1020,5 hPa 0,0 l/m 0 min 0 min 61 W/m 6,4 km/h (2 Bft) 93,62 %
23.06.2021 20:28 18,2 C 17,2 C 15,0 C 79 % 1020,5 hPa 0,0 l/m 0 min 0 min 58 W/m 12,9 km/h (3 Bft) 95,35 %
23.06.2021 20:30 18,1 C 17,2 C 15,0 C 79 % 1020,5 hPa 0,0 l/m 0 min 0 min 58 W/m 9,7 km/h (2 Bft) 93,48 %
23.06.2021 20:32 18,1 C 17,2 C 15,0 C 80 % 1020,5 hPa 0,0 l/m 0 min 0 min 58 W/m 12,9 km/h (3 Bft) 94,00 %
23.06.2021 20:34 18,1 C 17,2 C 15,0 C 79 % 1020,4 hPa 0,0 l/m 0 min 0 min 56 W/m 16,1 km/h (3 Bft) 95,83 %
23.06.2021 20:36 18,1 C 17,2 C 15,0 C 79 % 1020,4 hPa 0,0 l/m 0 min 0 min 52 W/m 12,9 km/h (3 Bft) 93,62 %
23.06.2021 20:38 18,0 C 17,2 C 15,0 C 80 % 1020,4 hPa 0,0 l/m 0 min 0 min 48 W/m 12,9 km/h (3 Bft) 95,74 %
23.06.2021 20:40 18,0 C 17,2 C 15,0 C 80 % 1020,4 hPa 0,0 l/m 0 min 0 min 44 W/m 6,4 km/h (2 Bft) 95,65 %
23.06.2021 20:42 18,0 C 17,2 C 15,0 C 80 % 1020,4 hPa 0,0 l/m 0 min 0 min 42 W/m 22,5 km/h (4 Bft) 95,35 %
23.06.2021 20:44 18,0 C 17,2 C 15,0 C 80 % 1020,4 hPa 0,0 l/m 0 min 0 min 42 W/m 9,7 km/h (2 Bft) 96,00 %
23.06.2021 20:46 17,9 C 17,2 C 15,0 C 80 % 1020,4 hPa 0,0 l/m 0 min 0 min 44 W/m 12,9 km/h (3 Bft) 93,75 %
23.06.2021 20:48 17,9 C 17,2 C 15,0 C 80 % 1020,3 hPa 0,0 l/m 0 min 0 min 44 W/m 3,2 km/h (1 Bft) 95,74 %
23.06.2021 20:50 17,9 C 17,2 C 15,0 C 80 % 1020,3 hPa 0,0 l/m 0 min 0 min 44 W/m 16,1 km/h (3 Bft) 95,74 %
23.06.2021 20:52 17,9 C 17,2 C 15,0 C 80 % 1020,4 hPa 0,0 l/m 0 min 0 min 42 W/m 9,7 km/h (2 Bft) 97,83 %
23.06.2021 20:54 17,9 C 17,2 C 15,0 C 81 % 1020,4 hPa 0,0 l/m 0 min 0 min 42 W/m 9,7 km/h (2 Bft) 95,35 %
23.06.2021 20:56 17,8 C 16,7 C 15,0 C 81 % 1020,3 hPa 0,0 l/m 0 min 0 min 41 W/m 19,3 km/h (3 Bft) 98,00 %
23.06.2021 20:58 17,8 C 16,7 C 15,0 C 80 % 1020,4 hPa 0,0 l/m 0 min 0 min 39 W/m 16,1 km/h (3 Bft) 100,00 %
23.06.2021 21:00 17,8 C 16,7 C 15,0 C 80 % 1020,4 hPa 0,0 l/m 0 min 0 min 38 W/m 6,4 km/h (2 Bft) 97,92 %
23.06.2021 21:02 17,8 C 16,7 C 15,0 C 80 % 1020,4 hPa 0,0 l/m 0 min 0 min 37 W/m 12,9 km/h (3 Bft) 97,92 %
23.06.2021 21:04 17,8 C 16,7 C 14,5 C 81 % 1020,4 hPa 0,0 l/m 0 min 0 min 34 W/m 12,9 km/h (3 Bft) 100,00 %
23.06.2021 21:06 17,7 C 16,7 C 14,5 C 81 % 1020,4 hPa 0,0 l/m 0 min 0 min 32 W/m 6,4 km/h (2 Bft) 100,00 %
23.06.2021 21:08 17,7 C 16,7 C 14,5 C 81 % 1020,4 hPa 0,0 l/m 0 min 0 min 31 W/m 12,9 km/h (3 Bft) 100,00 %
23.06.2021 21:10 17,6 C 16,7 C 14,5 C 81 % 1020,4 hPa 0,0 l/m 0 min 0 min 30 W/m 12,9 km/h (3 Bft) 100,00 %
23.06.2021 21:12 17,6 C 16,7 C 14,5 C 81 % 1020,5 hPa 0,0 l/m 0 min 0 min 27 W/m 22,5 km/h (4 Bft) 100,00 %
23.06.2021 21:14 17,6 C 16,7 C 14,5 C 81 % 1020,4 hPa 0,0 l/m 0 min 0 min 23 W/m 9,7 km/h (2 Bft) 97,87 %
23.06.2021 21:16 17,6 C 16,7 C 14,5 C 81 % 1020,4 hPa 0,0 l/m 0 min 0 min 19 W/m 9,7 km/h (2 Bft) 100,00 %
23.06.2021 21:18 17,6 C 16,7 C 14,5 C 81 % 1020,3 hPa 0,0 l/m 0 min 0 min 18 W/m 6,4 km/h (2 Bft) 100,00 %
23.06.2021 21:20 17,6 C 16,7 C 14,5 C 81 % 1020,3 hPa 0,0 l/m 0 min 0 min 15 W/m 6,4 km/h (2 Bft) 100,00 %
23.06.2021 21:22 17,5 C 16,7 C 14,5 C 82 % 1020,3 hPa 0,0 l/m 0 min 0 min 14 W/m 6,4 km/h (2 Bft) 100,00 %
23.06.2021 21:24 17,5 C 16,7 C 14,5 C 82 % 1020,3 hPa 0,0 l/m 0 min 0 min 13 W/m 3,2 km/h (1 Bft) 100,00 %
23.06.2021 21:26 17,5 C 16,7 C 14,5 C 83 % 1020,3 hPa 0,0 l/m 0 min 0 min 12 W/m 3,2 km/h (1 Bft) 100,00 %
23.06.2021 21:28 17,5 C 16,1 C 14,5 C 83 % 1020,3 hPa 0,0 l/m 0 min 0 min 12 W/m 6,4 km/h (2 Bft) 100,00 %
23.06.2021 21:30 17,5 C 16,1 C 14,5 C 83 % 1020,3 hPa 0,0 l/m 0 min 0 min 11 W/m 9,7 km/h (2 Bft) 100,00 %
23.06.2021 21:32 17,4 C 16,1 C 13,9 C 83 % 1020,3 hPa 0,0 l/m 0 min 0 min 10 W/m 6,4 km/h (2 Bft) 100,00 %
23.06.2021 21:34 17,4 C 16,1 C 13,9 C 84 % 1020,4 hPa 0,0 l/m 0 min 0 min 9 W/m 6,4 km/h (2 Bft) 100,00 %
23.06.2021 21:36 17,3 C 16,1 C 13,9 C 84 % 1020,4 hPa 0,0 l/m 0 min 0 min 8 W/m 6,4 km/h (2 Bft) 97,87 %
23.06.2021 21:38 17,3 C 16,1 C 13,9 C 84 % 1020,3 hPa 0,0 l/m 0 min 0 min 7 W/m 6,4 km/h (2 Bft) 100,00 %
23.06.2021 21:40 17,3 C 16,1 C 13,9 C 84 % 1020,4 hPa 0,0 l/m 0 min 0 min 6 W/m 6,4 km/h (2 Bft) 100,00 %
23.06.2021 21:42 17,2 C 16,1 C 13,9 C 84 % 1020,4 hPa 0,0 l/m 0 min 0 min 5 W/m 3,2 km/h (1 Bft) 96,36 %
23.06.2021 21:44 17,1 C 16,1 C 13,9 C 85 % 1020,5 hPa 0,0 l/m 0 min 0 min 3 W/m 3,2 km/h (1 Bft) 100,00 %
23.06.2021 21:46 17,1 C 16,1 C 13,9 C 85 % 1020,5 hPa 0,0 l/m 0 min 0 min 0 W/m 6,4 km/h (2 Bft) 97,22 %
23.06.2021 21:48 17,1 C 16,1 C 13,9 C 85 % 1020,5 hPa 0,0 l/m 0 min 0 min 0 W/m 0,0 km/h (0 Bft) 100,00 %
23.06.2021 21:50 17,0 C 16,1 C 13,9 C 85 % 1020,5 hPa 0,0 l/m 0 min 0 min 0 W/m 3,2 km/h (1 Bft) 100,00 %
23.06.2021 21:52 17,0 C 16,1 C 13,9 C 85 % 1020,5 hPa 0,0 l/m 0 min 0 min 0 W/m 6,4 km/h (2 Bft) 98,15 %
23.06.2021 21:54 17,0 C 16,1 C 13,9 C 86 % 1020,4 hPa 0,0 l/m 0 min 0 min 0 W/m 6,4 km/h (2 Bft) 100,00 %
23.06.2021 21:56 17,0 C 16,1 C 13,9 C 86 % 1020,4 hPa 0,0 l/m 0 min 0 min 0 W/m 6,4 km/h (2 Bft) 100,00 %
23.06.2021 21:58 17,0 C 16,1 C 13,9 C 86 % 1020,4 hPa 0,0 l/m 0 min 0 min 0 W/m 6,4 km/h (2 Bft) 100,00 %
23.06.2021 22:00 16,9 C 16,1 C 13,9 C 86 % 1020,4 hPa 0,0 l/m 0 min 0 min 0 W/m 6,4 km/h (2 Bft) 100,00 %
23.06.2021 22:02 16,9 C 16,1 C 13,9 C 86 % 1020,4 hPa 0,0 l/m 0 min 0 min 0 W/m 6,4 km/h (2 Bft) 100,00 %
23.06.2021 22:04 16,9 C 16,1 C 13,9 C 86 % 1020,4 hPa 0,0 l/m 0 min 0 min 0 W/m 6,4 km/h (2 Bft) 97,87 %
23.06.2021 22:06 16,9 C 16,1 C 13,9 C 86 % 1020,4 hPa 0,0 l/m 0 min 0 min 0 W/m 6,4 km/h (2 Bft) 97,87 %
23.06.2021 22:08 16,9 C 16,1 C 13,9 C 86 % 1020,5 hPa 0,0 l/m 0 min 0 min 0 W/m 6,4 km/h (2 Bft) 100,00 %
23.06.2021 22:10 16,9 C 16,1 C 13,9 C 86 % 1020,5 hPa 0,0 l/m 0 min 0 min 0 W/m 9,7 km/h (2 Bft) 100,00 %
23.06.2021 22:12 16,9 C 16,1 C 13,9 C 86 % 1020,5 hPa 0,0 l/m 0 min 0 min 0 W/m 12,9 km/h (3 Bft) 97,87 %
23.06.2021 22:14 16,9 C 16,1 C 13,9 C 86 % 1020,5 hPa 0,0 l/m 0 min 0 min 0 W/m 6,4 km/h (2 Bft) 100,00 %
23.06.2021 22:16 16,8 C 16,1 C 13,9 C 86 % 1020,5 hPa 0,0 l/m 0 min 0 min 0 W/m 3,2 km/h (1 Bft) 100,00 %
23.06.2021 22:18 16,8 C 16,1 C 13,9 C 86 % 1020,5 hPa 0,0 l/m 0 min 0 min 0 W/m 9,7 km/h (2 Bft) 100,00 %
23.06.2021 22:20 16,8 C 16,1 C 13,9 C 86 % 1020,5 hPa 0,0 l/m 0 min 0 min 0 W/m 9,7 km/h (2 Bft) 100,00 %
23.06.2021 22:22 16,8 C 16,1 C 14,5 C 86 % 1020,5 hPa 0,0 l/m 0 min 0 min 0 W/m 6,4 km/h (2 Bft) 100,00 %
23.06.2021 22:24 16,8 C 16,1 C 14,5 C 86 % 1020,5 hPa 0,0 l/m 0 min 0 min 0 W/m 6,4 km/h (2 Bft) 100,00 %
23.06.2021 22:26 16,8 C 16,1 C 14,5 C 86 % 1020,5 hPa 0,0 l/m 0 min 0 min 0 W/m 6,4 km/h (2 Bft) 100,00 %
23.06.2021 22:28 16,8 C 16,1 C 14,5 C 87 % 1020,5 hPa 0,0 l/m 0 min 0 min 0 W/m 6,4 km/h (2 Bft) 100,00 %
23.06.2021 22:30 16,8 C 16,1 C 14,5 C 87 % 1020,6 hPa 0,0 l/m 0 min 0 min 0 W/m 6,4 km/h (2 Bft) 100,00 %
23.06.2021 22:32 16,8 C 16,1 C 14,5 C 87 % 1020,6 hPa 0,0 l/m 0 min 0 min 0 W/m 6,4 km/h (2 Bft) 100,00 %
23.06.2021 22:34 16,8 C 16,1 C 14,5 C 87 % 1020,6 hPa 0,0 l/m 0 min 0 min 0 W/m 6,4 km/h (2 Bft) 100,00 %
23.06.2021 22:36 16,8 C 16,1 C 14,5 C 87 % 1020,6 hPa 0,0 l/m 0 min 0 min 0 W/m 9,7 km/h (2 Bft) 97,83 %
23.06.2021 22:38 16,8 C 16,1 C 14,5 C 87 % 1020,6 hPa 0,0 l/m 0 min 0 min 0 W/m 6,4 km/h (2 Bft) 100,00 %
23.06.2021 22:40 16,8 C 16,1 C 14,5 C 87 % 1020,6 hPa 0,0 l/m 0 min 0 min 0 W/m 6,4 km/h (2 Bft) 100,00 %
23.06.2021 22:42 16,8 C 16,1 C 14,5 C 87 % 1020,6 hPa 0,0 l/m 0 min 0 min 0 W/m 3,2 km/h (1 Bft) 100,00 %
23.06.2021 22:44 16,8 C 16,1 C 14,5 C 87 % 1020,5 hPa 0,0 l/m 0 min 0 min 0 W/m 12,9 km/h (3 Bft) 96,00 %
23.06.2021 22:46 16,8 C 16,1 C 14,5 C 87 % 1020,5 hPa 0,0 l/m 0 min 0 min 0 W/m 9,7 km/h (2 Bft) 100,00 %
23.06.2021 22:48 16,8 C 16,1 C 14,5 C 87 % 1020,5 hPa 0,0 l/m 0 min 0 min 0 W/m 9,7 km/h (2 Bft) 100,00 %
23.06.2021 22:50 16,8 C 16,1 C 14,5 C 87 % 1020,4 hPa 0,0 l/m 0 min 0 min 0 W/m 6,4 km/h (2 Bft) 100,00 %
23.06.2021 22:52 16,8 C 16,1 C 14,5 C 87 % 1020,5 hPa 0,0 l/m 0 min 0 min 0 W/m 6,4 km/h (2 Bft) 100,00 %
23.06.2021 22:54 16,8 C 16,1 C 14,5 C 87 % 1020,5 hPa 0,0 l/m 0 min 0 min 0 W/m 6,4 km/h (2 Bft) 95,35 %
23.06.2021 22:56 16,8 C 16,1 C 14,5 C 87 % 1020,4 hPa 0,0 l/m 0 min 0 min 0 W/m 6,4 km/h (2 Bft) 96,00 %
23.06.2021 22:58 16,8 C 16,1 C 14,5 C 87 % 1020,4 hPa 0,0 l/m 0 min 0 min 0 W/m 19,3 km/h (3 Bft) 95,74 %
23.06.2021 23:00 16,8 C 16,1 C 14,5 C 87 % 1020,4 hPa 0,0 l/m 0 min 0 min 0 W/m 9,7 km/h (2 Bft) 95,92 %
23.06.2021 23:02 16,8 C 16,1 C 14,5 C 87 % 1020,5 hPa 0,0 l/m 0 min 0 min 0 W/m 6,4 km/h (2 Bft) 92,00 %
23.06.2021 23:04 16,8 C 16,1 C 14,5 C 87 % 1020,4 hPa 0,0 l/m 0 min 0 min 0 W/m 3,2 km/h (1 Bft) 97,22 %
23.06.2021 23:06 16,8 C 16,1 C 14,5 C 87 % 1020,4 hPa 0,0 l/m 0 min 0 min 0 W/m 9,7 km/h (2 Bft) 93,62 %
23.06.2021 23:08 16,8 C 16,1 C 14,5 C 87 % 1020,4 hPa 0,0 l/m 0 min 0 min 0 W/m 3,2 km/h (1 Bft) 96,36 %
23.06.2021 23:10 16,7 C 16,1 C 13,9 C 87 % 1020,4 hPa 0,0 l/m 0 min 0 min 0 W/m 9,7 km/h (2 Bft) 95,74 %
23.06.2021 23:12 16,7 C 16,1 C 13,9 C 87 % 1020,4 hPa 0,0 l/m 0 min 0 min 0 W/m 12,9 km/h (3 Bft) 95,65 %
23.06.2021 23:14 16,7 C 16,1 C 14,5 C 87 % 1020,4 hPa 0,0 l/m 0 min 0 min 0 W/m 9,7 km/h (2 Bft) 94,00 %
23.06.2021 23:16 16,6 C 16,1 C 13,9 C 87 % 1020,4 hPa 0,0 l/m 0 min 0 min 0 W/m 9,7 km/h (2 Bft) 95,74 %
23.06.2021 23:18 16,6 C 16,1 C 13,9 C 87 % 1020,4 hPa 0,0 l/m 0 min 0 min 0 W/m 9,7 km/h (2 Bft) 95,74 %
23.06.2021 23:20 16,6 C 15,6 C 13,9 C 87 % 1020,4 hPa 0,0 l/m 0 min 0 min 0 W/m 3,2 km/h (1 Bft) 91,49 %
23.06.2021 23:22 16,6 C 15,6 C 13,9 C 87 % 1020,3 hPa 0,0 l/m 0 min 0 min 0 W/m 6,4 km/h (2 Bft) 93,48 %
23.06.2021 23:24 16,6 C 15,6 C 13,9 C 87 % 1020,3 hPa 0,0 l/m 0 min 0 min 0 W/m 12,9 km/h (3 Bft) 91,49 %
23.06.2021 23:26 16,6 C 15,6 C 13,9 C 87 % 1020,2 hPa 0,0 l/m 0 min 0 min 0 W/m 16,1 km/h (3 Bft) 93,62 %
23.06.2021 23:28 16,6 C 15,6 C 13,9 C 87 % 1020,2 hPa 0,0 l/m 0 min 0 min 0 W/m 6,4 km/h (2 Bft) 93,62 %
23.06.2021 23:30 16,6 C 15,6 C 13,9 C 87 % 1020,1 hPa 0,0 l/m 0 min 0 min 0 W/m 9,7 km/h (2 Bft) 93,62 %
23.06.2021 23:32 16,6 C 15,6 C 13,9 C 87 % 1020,1 hPa 0,0 l/m 0 min 0 min 0 W/m 9,7 km/h (2 Bft) 93,62 %
23.06.2021 23:34 16,5 C 15,6 C 13,9 C 87 % 1020,1 hPa 0,0 l/m 0 min 0 min 0 W/m 9,7 km/h (2 Bft) 93,48 %
23.06.2021 23:36 16,5 C 15,6 C 13,9 C 87 % 1020,0 hPa 0,0 l/m 0 min 0 min 0 W/m 9,7 km/h (2 Bft) 91,49 %
23.06.2021 23:38 16,5 C 15,6 C 13,9 C 87 % 1020,0 hPa 0,0 l/m 0 min 0 min 0 W/m 16,1 km/h (3 Bft) 93,62 %
23.06.2021 23:40 16,5 C 15,6 C 13,9 C 87 % 1020,0 hPa 0,0 l/m 0 min 0 min 0 W/m 16,1 km/h (3 Bft) 93,62 %
23.06.2021 23:42 16,5 C 15,6 C 13,9 C 87 % 1020,0 hPa 0,0 l/m 0 min 0 min 0 W/m 9,7 km/h (2 Bft) 91,49 %
23.06.2021 23:44 16,5 C 15,6 C 13,9 C 87 % 1020,1 hPa 0,0 l/m 0 min 0 min 0 W/m 6,4 km/h (2 Bft) 93,48 %
23.06.2021 23:46 16,5 C 15,6 C 13,9 C 87 % 1020,0 hPa 0,0 l/m 0 min 0 min 0 W/m 9,7 km/h (2 Bft) 97,87 %
23.06.2021 23:48 16,5 C 15,6 C 13,9 C 87 % 1020,0 hPa 0,0 l/m 0 min 0 min 0 W/m 6,4 km/h (2 Bft) 97,87 %
23.06.2021 23:50 16,4 C 15,6 C 13,9 C 87 % 1020,0 hPa 0,0 l/m 0 min 0 min 0 W/m 6,4 km/h (2 Bft) 97,87 %
23.06.2021 23:52 16,4 C 15,6 C 13,9 C 87 % 1020,0 hPa 0,0 l/m 0 min 0 min 0 W/m 3,2 km/h (1 Bft) 95,74 %
23.06.2021 23:54 16,4 C 15,6 C 13,9 C 87 % 1020,1 hPa 0,0 l/m 0 min 0 min 0 W/m 3,2 km/h (1 Bft) 95,74 %
23.06.2021 23:56 16,4 C 15,0 C 13,4 C 87 % 1020,2 hPa 0,0 l/m 0 min 0 min 0 W/m 6,4 km/h (2 Bft) 97,83 %
23.06.2021 23:58 16,4 C 15,0 C 13,4 C 87 % 1020,3 hPa 0,0 l/m 0 min 0 min 0 W/m 6,4 km/h (2 Bft) 97,87 %
_ Min-Zeit 05:22 02:12 04:58 16:12 01:14 - - - - 21:48 04:40
Minimum _ 12,6 C 12,2 C 11,1 C 74 % 1018,7 hPa - - - - 0,0 km/h (0 Bft) 52,27 %
_ Max-Zeit 16:06 15:12 15:58 00:00 13:10 00:00 15:06 00:00 15:14 19:50 00:20
Maximum _ 19,2 C 20,6 C 17,8 C 98 % 1021,2 hPa 0,0 l/m 2 min 0 min 802 W/m 29,0 km/h
W (5 Bft)
100,00 %
Durchschnitt _ 15,7 C 15,6 C 14,2 C 87 % 1020,3 hPa #0,0 l/m #1:06 h #0 min. 187 W/m 11,1 km/h (2 Bft) 97,57 %
© 2021 W. Hausmann